Time,TemperatureF,DewpointF,PressureIn,WindDirection,WindDirectionDegrees,WindSpeedMPH,WindSpeedGustMPH,Humidity,HourlyPrecipIn,Conditions,Clouds,dailyrainin,SoftwareType,DateUTC
2013-02-04 00:00:00,64.0,61.0,30.00,SSE,157,5.0,5.0,91,0.00,,,0.00,TxWx,2013-02-04 06:00:00,
2013-02-04 00:04:00,64.0,61.0,30.00,SSE,157,5.0,5.0,91,0.00,,,0.00,TxWx,2013-02-04 06:04:00,
2013-02-04 00:05:00,64.0,61.0,30.00,SSE,157,4.0,4.0,91,0.00,,,0.00,TxWx,2013-02-04 06:05:00,
2013-02-04 00:08:00,64.0,61.0,29.99,ESE,112,6.0,6.0,91,0.00,,,0.00,TxWx,2013-02-04 06:08:00,
2013-02-04 00:09:00,64.0,61.0,29.99,South,180,6.0,6.0,91,0.00,,,0.00,TxWx,2013-02-04 06:09:00,
2013-02-04 00:10:00,64.0,61.0,29.99,SSE,157,6.0,6.0,91,0.00,,,0.00,TxWx,2013-02-04 06:10:00,
2013-02-04 00:14:00,64.0,61.0,29.99,SSE,157,7.0,8.0,91,0.00,,,0.00,TxWx,2013-02-04 06:14:00,
2013-02-04 00:15:00,64.0,61.0,29.99,SSE,157,9.0,10.0,91,0.00,,,0.00,TxWx,2013-02-04 06:15:00,
2013-02-04 00:16:00,64.0,61.0,29.99,SE,135,5.0,5.0,91,0.00,,,0.00,TxWx,2013-02-04 06:16:00,
2013-02-04 00:17:00,64.0,61.0,29.99,SSW,202,4.0,5.0,91,0.00,,,0.00,TxWx,2013-02-04 06:17:00,
2013-02-04 00:20:00,64.0,61.0,29.99,South,180,6.0,6.0,90,0.00,,,0.00,TxWx,2013-02-04 06:20:00,
2013-02-04 00:22:00,64.0,61.0,29.99,South,180,5.0,5.0,90,0.00,,,0.00,TxWx,2013-02-04 06:22:00,
2013-02-04 00:24:00,64.0,61.0,29.99,SE,135,5.0,7.0,90,0.00,,,0.00,TxWx,2013-02-04 06:24:00,
2013-02-04 00:26:00,64.0,61.0,29.99,SSW,202,6.0,6.0,90,0.00,,,0.00,TxWx,2013-02-04 06:26:00,
2013-02-04 00:27:00,64.0,61.0,29.99,South,180,4.0,4.0,90,0.00,,,0.00,TxWx,2013-02-04 06:27:00,
2013-02-04 00:28:00,64.0,61.0,29.99,South,180,6.0,6.0,90,0.00,,,0.00,TxWx,2013-02-04 06:28:00,
2013-02-04 00:30:00,64.0,61.0,29.99,SSE,157,4.0,4.0,90,0.00,,,0.00,TxWx,2013-02-04 06:30:00,
2013-02-04 00:32:00,64.0,61.0,29.99,SSE,157,3.0,4.0,90,0.00,,,0.00,TxWx,2013-02-04 06:32:00,
2013-02-04 00:35:00,64.0,61.0,29.99,SE,135,3.0,4.0,89,0.00,,,0.00,TxWx,2013-02-04 06:35:00,
2013-02-04 00:38:00,64.0,61.0,29.99,SSE,157,5.0,6.0,89,0.00,,,0.00,TxWx,2013-02-04 06:38:00,
2013-02-04 00:40:00,64.0,61.0,29.99,SE,135,5.0,5.0,89,0.00,,,0.00,TxWx,2013-02-04 06:40:00,
2013-02-04 00:43:00,64.0,61.0,29.99,South,180,4.0,4.0,89,0.00,,,0.00,TxWx,2013-02-04 06:43:00,
2013-02-04 00:44:00,64.0,61.0,29.99,SSW,202,5.0,5.0,89,0.00,,,0.00,TxWx,2013-02-04 06:44:00,
2013-02-04 00:45:00,64.0,61.0,29.99,SSE,157,5.0,5.0,89,0.00,,,0.00,TxWx,2013-02-04 06:45:00,
2013-02-04 00:49:00,64.0,61.0,29.99,SSW,202,4.0,5.0,89,0.00,,,0.00,TxWx,2013-02-04 06:49:00,
2013-02-04 00:50:00,64.0,61.0,29.99,SSE,157,6.0,6.0,89,0.00,,,0.00,TxWx,2013-02-04 06:50:00,
2013-02-04 00:55:00,64.0,61.0,29.99,SSE,157,3.0,3.0,89,0.00,,,0.00,TxWx,2013-02-04 06:55:00,
2013-02-04 00:56:00,64.0,61.0,29.99,SSW,202,5.0,6.0,89,0.00,,,0.00,TxWx,2013-02-04 06:56:00,
2013-02-04 00:57:00,64.0,60.0,29.99,SSW,202,8.0,8.0,88,0.00,,,0.00,TxWx,2013-02-04 06:57:00,
2013-02-04 01:01:00,64.0,60.0,29.99,South,180,6.0,6.0,88,0.00,,,0.00,TxWx,2013-02-04 07:01:00,
2013-02-04 01:02:00,64.0,60.0,29.98,South,180,7.0,7.0,88,0.00,,,0.00,TxWx,2013-02-04 07:02:00,
2013-02-04 01:03:00,64.0,60.0,29.98,South,180,5.0,5.0,88,0.00,,,0.00,TxWx,2013-02-04 07:03:00,
2013-02-04 01:06:00,64.0,60.0,29.98,South,180,6.0,6.0,88,0.00,,,0.00,TxWx,2013-02-04 07:06:00,
2013-02-04 01:10:00,64.0,60.0,29.97,SSE,157,3.0,3.0,88,0.00,,,0.00,TxWx,2013-02-04 07:10:00,
2013-02-04 01:11:00,64.0,60.0,29.97,SSE,157,3.0,4.0,88,0.00,,,0.00,TxWx,2013-02-04 07:11:00,
2013-02-04 01:12:00,64.0,60.0,29.97,South,180,4.0,4.0,88,0.00,,,0.00,TxWx,2013-02-04 07:12:00,
2013-02-04 01:14:00,64.0,61.0,29.97,SSE,157,4.0,5.0,89,0.00,,,0.00,TxWx,2013-02-04 07:14:00,
2013-02-04 01:15:00,64.0,60.0,29.97,South,180,3.0,5.0,88,0.00,,,0.00,TxWx,2013-02-04 07:15:00,
2013-02-04 01:17:00,64.0,61.0,29.97,SSW,202,4.0,4.0,89,0.00,,,0.00,TxWx,2013-02-04 07:17:00,
2013-02-04 01:19:00,64.0,61.0,29.97,SSE,157,5.0,5.0,89,0.00,,,0.00,TxWx,2013-02-04 07:19:00,
2013-02-04 01:20:00,64.0,61.0,29.97,SSW,202,5.0,5.0,89,0.00,,,0.00,TxWx,2013-02-04 07:20:00,
2013-02-04 01:24:00,64.0,61.0,29.97,SSE,157,4.0,4.0,89,0.00,,,0.00,TxWx,2013-02-04 07:24:00,
2013-02-04 01:25:00,64.0,61.0,29.97,South,180,6.0,6.0,89,0.00,,,0.00,TxWx,2013-02-04 07:25:00,
2013-02-04 01:26:00,64.0,61.0,29.97,SSE,157,5.0,5.0,89,0.00,,,0.00,TxWx,2013-02-04 07:26:00,
2013-02-04 01:29:00,64.0,61.0,29.97,South,180,5.0,5.0,89,0.00,,,0.00,TxWx,2013-02-04 07:29:00,
2013-02-04 01:32:00,64.0,61.0,29.97,South,180,5.0,5.0,89,0.00,,,0.00,TxWx,2013-02-04 07:32:00,
2013-02-04 01:34:00,64.0,61.0,29.97,SSW,202,5.0,5.0,89,0.00,,,0.00,TxWx,2013-02-04 07:34:00,
2013-02-04 01:35:00,64.0,61.0,29.97,SSE,157,7.0,7.0,89,0.00,,,0.00,TxWx,2013-02-04 07:35:00,
2013-02-04 01:38:00,64.0,61.0,29.96,SSE,157,8.0,8.0,89,0.00,,,0.00,TxWx,2013-02-04 07:38:00,
2013-02-04 01:39:00,64.0,61.0,29.96,SSE,157,6.0,7.0,89,0.00,,,0.00,TxWx,2013-02-04 07:39:00,
2013-02-04 01:41:00,64.0,61.0,29.96,SE,135,8.0,8.0,89,0.00,,,0.00,TxWx,2013-02-04 07:41:00,
2013-02-04 01:43:00,64.0,61.0,29.96,SSE,157,6.0,6.0,89,0.00,,,0.00,TxWx,2013-02-04 07:43:00,
2013-02-04 01:45:00,64.0,61.0,29.96,South,180,3.0,3.0,89,0.00,,,0.00,TxWx,2013-02-04 07:45:00,
2013-02-04 01:46:00,64.0,61.0,29.96,South,180,5.0,5.0,89,0.00,,,0.00,TxWx,2013-02-04 07:46:00,
2013-02-04 01:47:00,64.0,61.0,29.96,SSE,157,6.0,6.0,89,0.00,,,0.00,TxWx,2013-02-04 07:47:00,
2013-02-04 01:49:00,64.0,61.0,29.95,SSE,157,5.0,6.0,89,0.00,,,0.00,TxWx,2013-02-04 07:49:00,
2013-02-04 01:50:00,64.0,61.0,29.95,SSW,202,8.0,8.0,89,0.00,,,0.00,TxWx,2013-02-04 07:50:00,
2013-02-04 01:52:00,64.0,61.0,29.95,SE,135,6.0,6.0,89,0.00,,,0.00,TxWx,2013-02-04 07:52:00,
2013-02-04 01:55:00,64.0,61.0,29.95,WSW,247,5.0,6.0,89,0.00,,,0.00,TxWx,2013-02-04 07:55:00,
2013-02-04 01:57:00,64.0,61.0,29.95,South,180,5.0,6.0,89,0.00,,,0.00,TxWx,2013-02-04 07:57:00,
2013-02-04 01:59:00,64.0,61.0,29.95,South,180,7.0,7.0,89,0.00,,,0.00,TxWx,2013-02-04 07:59:00,
2013-02-04 02:03:00,64.0,61.0,29.95,South,180,8.0,10.0,89,0.00,,,0.00,TxWx,2013-02-04 08:03:00,
2013-02-04 02:05:00,64.0,61.0,29.95,SSW,202,6.0,7.0,89,0.00,,,0.00,TxWx,2013-02-04 08:05:00,
2013-02-04 02:07:00,64.0,61.0,29.95,South,180,6.0,6.0,89,0.00,,,0.00,TxWx,2013-02-04 08:07:00,
2013-02-04 02:09:00,64.0,61.0,29.95,SSE,157,5.0,8.0,89,0.00,,,0.00,TxWx,2013-02-04 08:09:00,
2013-02-04 02:11:00,64.0,61.0,29.95,SSE,157,9.0,9.0,89,0.00,,,0.00,TxWx,2013-02-04 08:11:00,
2013-02-04 02:12:00,64.0,61.0,29.95,SSE,157,8.0,8.0,89,0.00,,,0.00,TxWx,2013-02-04 08:12:00,
2013-02-04 02:14:00,64.0,61.0,29.95,South,180,4.0,5.0,89,0.00,,,0.00,TxWx,2013-02-04 08:14:00,
2013-02-04 02:16:00,64.0,61.0,29.95,South,180,6.0,6.0,89,0.00,,,0.00,TxWx,2013-02-04 08:16:00,
2013-02-04 02:17:00,64.0,61.0,29.95,South,180,6.0,6.0,89,0.00,,,0.00,TxWx,2013-02-04 08:17:00,
2013-02-04 02:18:00,64.0,61.0,29.95,South,180,9.0,9.0,89,0.00,,,0.00,TxWx,2013-02-04 08:18:00,
2013-02-04 02:20:00,64.0,61.0,29.94,South,180,4.0,4.0,89,0.00,,,0.00,TxWx,2013-02-04 08:20:00,
2013-02-04 02:22:00,64.0,61.0,29.94,SSE,157,5.0,6.0,89,0.00,,,0.00,TxWx,2013-02-04 08:22:00,
2013-02-04 02:23:00,64.0,61.0,29.94,SSE,157,6.0,6.0,89,0.00,,,0.00,TxWx,2013-02-04 08:23:00,
2013-02-04 02:25:00,64.0,60.0,29.94,ESE,112,5.0,6.0,88,0.00,,,0.00,TxWx,2013-02-04 08:25:00,
2013-02-04 02:27:00,64.0,60.0,29.94,South,180,6.0,6.0,88,0.00,,,0.00,TxWx,2013-02-04 08:27:00,
2013-02-04 02:29:00,64.0,60.0,29.94,SE,135,8.0,8.0,88,0.00,,,0.00,TxWx,2013-02-04 08:29:00,
2013-02-04 02:30:00,64.0,60.0,29.94,SSE,157,8.0,9.0,88,0.00,,,0.00,TxWx,2013-02-04 08:30:00,
2013-02-04 02:33:00,64.0,60.0,29.94,South,180,3.0,3.0,88,0.00,,,0.00,TxWx,2013-02-04 08:33:00,
2013-02-04 02:37:00,64.0,60.0,29.94,South,180,6.0,7.0,88,0.00,,,0.00,TxWx,2013-02-04 08:37:00,
2013-02-04 02:38:00,64.0,60.0,29.94,SSW,202,6.0,7.0,88,0.00,,,0.00,TxWx,2013-02-04 08:38:00,
2013-02-04 02:42:00,64.0,60.0,29.94,SSE,157,8.0,8.0,88,0.00,,,0.00,TxWx,2013-02-04 08:42:00,
2013-02-04 02:43:00,64.0,60.0,29.94,SSW,202,3.0,4.0,88,0.00,,,0.00,TxWx,2013-02-04 08:43:00,
2013-02-04 02:45:00,64.0,60.0,29.94,SE,135,5.0,5.0,88,0.00,,,0.00,TxWx,2013-02-04 08:45:00,
2013-02-04 02:48:00,64.0,60.0,29.94,SSE,157,5.0,5.0,88,0.00,,,0.00,TxWx,2013-02-04 08:48:00,
2013-02-04 02:49:00,64.0,60.0,29.94,SSW,202,6.0,6.0,88,0.00,,,0.00,TxWx,2013-02-04 08:49:00,
2013-02-04 02:52:00,64.0,60.0,29.94,SSW,202,6.0,6.0,88,0.00,,,0.00,TxWx,2013-02-04 08:52:00,
2013-02-04 02:54:00,64.0,60.0,29.94,SSE,157,3.0,3.0,88,0.00,,,0.00,TxWx,2013-02-04 08:54:00,
2013-02-04 02:55:00,64.0,60.0,29.94,SSE,157,5.0,5.0,88,0.00,,,0.00,TxWx,2013-02-04 08:55:00,
2013-02-04 02:58:00,64.0,60.0,29.94,SSE,157,5.0,6.0,88,0.00,,,0.00,TxWx,2013-02-04 08:58:00,
2013-02-04 02:59:00,64.0,60.0,29.94,SSW,202,3.0,3.0,88,0.00,,,0.00,TxWx,2013-02-04 08:59:00,
2013-02-04 03:01:00,64.0,60.0,29.94,South,180,5.0,5.0,88,0.00,,,0.00,TxWx,2013-02-04 09:01:00,
2013-02-04 03:03:00,64.0,60.0,29.94,South,180,7.0,7.0,88,0.00,,,0.00,TxWx,2013-02-04 09:03:00,
2013-02-04 03:04:00,64.0,60.0,29.93,South,180,5.0,5.0,88,0.00,,,0.00,TxWx,2013-02-04 09:04:00,
2013-02-04 03:05:00,64.0,60.0,29.93,SSE,157,5.0,5.0,88,0.00,,,0.00,TxWx,2013-02-04 09:05:00,
2013-02-04 03:06:00,64.0,60.0,29.93,South,180,8.0,8.0,88,0.00,,,0.00,TxWx,2013-02-04 09:06:00,
2013-02-04 03:09:00,64.0,60.0,29.93,South,180,7.0,8.0,88,0.00,,,0.00,TxWx,2013-02-04 09:09:00,
2013-02-04 03:10:00,64.0,60.0,29.93,South,180,6.0,6.0,88,0.00,,,0.00,TxWx,2013-02-04 09:10:00,
2013-02-04 03:11:00,64.0,60.0,29.93,South,180,5.0,6.0,88,0.00,,,0.00,TxWx,2013-02-04 09:11:00,
2013-02-04 03:12:00,64.0,60.0,29.93,SSE,157,4.0,4.0,88,0.00,,,0.00,TxWx,2013-02-04 09:12:00,
2013-02-04 03:16:00,64.0,60.0,29.93,SSE,157,3.0,4.0,88,0.00,,,0.00,TxWx,2013-02-04 09:16:00,
2013-02-04 03:17:00,64.0,61.0,29.93,SSW,202,6.0,6.0,89,0.00,,,0.00,TxWx,2013-02-04 09:17:00,
2013-02-04 03:18:00,64.0,61.0,29.93,SSW,202,6.0,6.0,89,0.00,,,0.00,TxWx,2013-02-04 09:18:00,
2013-02-04 03:22:00,64.0,61.0,29.94,SSW,202,6.0,6.0,89,0.00,,,0.00,TxWx,2013-02-04 09:22:00,
2013-02-04 03:24:00,64.0,61.0,29.94,SSW,202,5.0,5.0,89,0.00,,,0.00,TxWx,2013-02-04 09:24:00,
2013-02-04 03:26:00,64.0,61.0,29.94,SE,135,6.0,6.0,89,0.00,,,0.00,TxWx,2013-02-04 09:26:00,
2013-02-04 03:27:00,64.0,61.0,29.94,South,180,5.0,5.0,89,0.00,,,0.00,TxWx,2013-02-04 09:27:00,
2013-02-04 03:29:00,64.0,61.0,29.94,South,180,6.0,6.0,89,0.00,,,0.00,TxWx,2013-02-04 09:29:00,
2013-02-04 03:31:00,64.0,61.0,29.94,South,180,6.0,6.0,89,0.00,,,0.00,TxWx,2013-02-04 09:31:00,
2013-02-04 03:32:00,64.0,61.0,29.94,South,180,4.0,4.0,89,0.00,,,0.00,TxWx,2013-02-04 09:32:00,
2013-02-04 03:33:00,64.0,61.0,29.94,SSW,202,4.0,4.0,89,0.00,,,0.00,TxWx,2013-02-04 09:33:00,
2013-02-04 03:35:00,64.0,61.0,29.94,SSE,157,6.0,6.0,89,0.00,,,0.00,TxWx,2013-02-04 09:35:00,
2013-02-04 03:38:00,64.0,61.0,29.94,South,180,5.0,5.0,89,0.00,,,0.00,TxWx,2013-02-04 09:38:00,
2013-02-04 03:40:00,64.0,61.0,29.94,South,180,5.0,5.0,89,0.00,,,0.00,TxWx,2013-02-04 09:40:00,
2013-02-04 03:41:00,64.0,61.0,29.94,SSW,202,5.0,5.0,89,0.00,,,0.00,TxWx,2013-02-04 09:41:00,
2013-02-04 03:43:00,64.0,61.0,29.94,South,180,5.0,6.0,89,0.00,,,0.00,TxWx,2013-02-04 09:43:00,
2013-02-04 03:44:00,64.0,61.0,29.94,SSW,202,4.0,4.0,89,0.00,,,0.00,TxWx,2013-02-04 09:44:00,
2013-02-04 03:49:00,64.0,61.0,29.94,South,180,5.0,5.0,89,0.00,,,0.00,TxWx,2013-02-04 09:49:00,
2013-02-04 03:50:00,64.0,61.0,29.94,SSE,157,4.0,4.0,89,0.00,,,0.00,TxWx,2013-02-04 09:50:00,
2013-02-04 03:54:00,64.0,61.0,29.94,South,180,5.0,5.0,89,0.00,,,0.00,TxWx,2013-02-04 09:54:00,
2013-02-04 03:56:00,64.0,61.0,29.94,SE,135,4.0,4.0,89,0.00,,,0.00,TxWx,2013-02-04 09:56:00,
2013-02-04 03:57:00,64.0,61.0,29.94,SSW,202,3.0,3.0,89,0.00,,,0.00,TxWx,2013-02-04 09:57:00,
2013-02-04 03:59:00,64.0,61.0,29.94,SSE,157,7.0,7.0,89,0.00,,,0.00,TxWx,2013-02-04 09:59:00,
2013-02-04 04:00:00,64.0,61.0,29.94,SE,135,4.0,6.0,89,0.00,,,0.00,TxWx,2013-02-04 10:00:00,
2013-02-04 04:02:00,64.0,61.0,29.94,SSE,157,3.0,3.0,89,0.00,,,0.00,TxWx,2013-02-04 10:02:00,
2013-02-04 04:05:00,64.0,61.0,29.94,SSE,157,3.0,3.0,90,0.00,,,0.00,TxWx,2013-02-04 10:05:00,
2013-02-04 04:06:00,64.0,61.0,29.94,SSE,157,5.0,5.0,90,0.00,,,0.00,TxWx,2013-02-04 10:06:00,
2013-02-04 04:08:00,64.0,61.0,29.94,SSE,157,5.0,6.0,90,0.00,,,0.00,TxWx,2013-02-04 10:08:00,
2013-02-04 04:12:00,64.0,61.0,29.94,SSE,157,4.0,5.0,90,0.00,,,0.00,TxWx,2013-02-04 10:12:00,
2013-02-04 04:13:00,64.0,61.0,29.94,SSW,202,2.0,3.0,90,0.00,,,0.00,TxWx,2013-02-04 10:13:00,
2013-02-04 04:14:00,64.0,61.0,29.94,South,180,3.0,4.0,90,0.00,,,0.00,TxWx,2013-02-04 10:14:00,
2013-02-04 04:19:00,64.0,61.0,29.94,South,180,3.0,3.0,90,0.00,,,0.00,TxWx,2013-02-04 10:19:00,
2013-02-04 04:20:00,64.0,61.0,29.95,South,180,3.0,3.0,90,0.00,,,0.00,TxWx,2013-02-04 10:20:00,
2013-02-04 04:22:00,64.0,61.0,29.95,South,180,3.0,3.0,90,0.00,,,0.00,TxWx,2013-02-04 10:22:00,
2013-02-04 04:25:00,64.0,61.0,29.95,SW,225,2.0,2.0,90,0.00,,,0.00,TxWx,2013-02-04 10:25:00,
2013-02-04 04:26:00,64.0,61.0,29.95,South,180,2.0,3.0,90,0.00,,,0.00,TxWx,2013-02-04 10:26:00,
2013-02-04 04:29:00,64.0,61.0,29.95,SSE,157,1.0,2.0,90,0.00,,,0.00,TxWx,2013-02-04 10:29:00,
2013-02-04 04:32:00,64.0,61.0,29.95,SSE,157,2.0,3.0,90,0.00,,,0.00,TxWx,2013-02-04 10:32:00,
2013-02-04 04:36:00,64.0,61.0,29.95,South,180,3.0,3.0,90,0.00,,,0.00,TxWx,2013-02-04 10:36:00,
2013-02-04 04:37:00,64.0,61.0,29.95,South,180,3.0,3.0,90,0.00,,,0.00,TxWx,2013-02-04 10:37:00,
2013-02-04 04:38:00,64.0,61.0,29.95,SSW,202,3.0,3.0,90,0.00,,,0.00,TxWx,2013-02-04 10:38:00,
2013-02-04 04:41:00,64.0,61.0,29.95,SW,225,1.0,2.0,90,0.00,,,0.00,TxWx,2013-02-04 10:41:00,
2013-02-04 04:42:00,64.0,61.0,29.95,SSE,157,4.0,4.0,90,0.00,,,0.00,TxWx,2013-02-04 10:42:00,
2013-02-04 04:43:00,64.0,61.0,29.95,SSE,157,3.0,4.0,90,0.00,,,0.00,TxWx,2013-02-04 10:43:00,
2013-02-04 04:44:00,64.0,61.0,29.95,South,180,3.0,3.0,90,0.00,,,0.00,TxWx,2013-02-04 10:44:00,
2013-02-04 04:48:00,64.0,61.0,29.95,SW,225,2.0,3.0,90,0.00,,,0.00,TxWx,2013-02-04 10:48:00,
2013-02-04 04:49:00,64.0,61.0,29.95,South,180,3.0,3.0,90,0.00,,,0.00,TxWx,2013-02-04 10:49:00,
2013-02-04 04:50:00,64.0,61.0,29.95,SSE,157,3.0,3.0,90,0.00,,,0.00,TxWx,2013-02-04 10:50:00,
2013-02-04 04:54:00,64.0,61.0,29.95,South,180,3.0,4.0,90,0.00,,,0.00,TxWx,2013-02-04 10:54:00,
2013-02-04 04:56:00,64.0,61.0,29.95,South,180,3.0,3.0,90,0.00,,,0.00,TxWx,2013-02-04 10:56:00,
2013-02-04 04:59:00,64.0,61.0,29.94,South,180,4.0,4.0,90,0.00,,,0.00,TxWx,2013-02-04 10:59:00,
2013-02-04 05:00:00,64.0,61.0,29.94,SSE,157,3.0,3.0,90,0.00,,,0.00,TxWx,2013-02-04 11:00:00,
2013-02-04 05:02:00,64.0,61.0,29.94,South,180,5.0,5.0,90,0.00,,,0.00,TxWx,2013-02-04 11:02:00,
2013-02-04 05:05:00,64.0,61.0,29.94,South,180,3.0,4.0,90,0.00,,,0.00,TxWx,2013-02-04 11:05:00,
2013-02-04 05:06:00,64.0,61.0,29.94,South,180,5.0,5.0,90,0.00,,,0.00,TxWx,2013-02-04 11:06:00,
2013-02-04 05:08:00,64.0,61.0,29.93,South,180,5.0,5.0,90,0.00,,,0.00,TxWx,2013-02-04 11:08:00,
2013-02-04 05:11:00,64.0,61.0,29.93,South,180,5.0,5.0,90,0.00,,,0.00,TxWx,2013-02-04 11:11:00,
2013-02-04 05:13:00,64.0,61.0,29.93,SSE,157,3.0,3.0,90,0.00,,,0.00,TxWx,2013-02-04 11:13:00,
2013-02-04 05:15:00,64.0,61.0,29.93,South,180,4.0,5.0,90,0.00,,,0.00,TxWx,2013-02-04 11:15:00,
2013-02-04 05:16:00,64.0,61.0,29.93,SSE,157,3.0,4.0,90,0.00,,,0.00,TxWx,2013-02-04 11:16:00,
2013-02-04 05:18:00,64.0,61.0,29.93,South,180,4.0,4.0,90,0.00,,,0.00,TxWx,2013-02-04 11:18:00,
2013-02-04 05:19:00,64.0,61.0,29.93,SSE,157,4.0,4.0,90,0.00,,,0.00,TxWx,2013-02-04 11:19:00,
2013-02-04 05:22:00,64.0,61.0,29.93,SSW,202,5.0,5.0,90,0.00,,,0.00,TxWx,2013-02-04 11:22:00,
2013-02-04 05:23:00,64.0,61.0,29.92,SSE,157,5.0,5.0,90,0.00,,,0.00,TxWx,2013-02-04 11:23:00,
2013-02-04 05:24:00,64.0,61.0,29.92,SSE,157,3.0,4.0,90,0.00,,,0.00,TxWx,2013-02-04 11:24:00,
2013-02-04 05:26:00,64.0,61.0,29.92,SE,135,3.0,4.0,90,0.00,,,0.00,TxWx,2013-02-04 11:26:00,
2013-02-04 05:27:00,64.0,61.0,29.92,South,180,5.0,5.0,90,0.00,,,0.00,TxWx,2013-02-04 11:27:00,
2013-02-04 05:30:00,64.0,61.0,29.92,South,180,3.0,4.0,90,0.00,,,0.00,TxWx,2013-02-04 11:30:00,
2013-02-04 05:32:00,64.0,61.0,29.92,SSE,157,5.0,5.0,91,0.00,,,0.00,TxWx,2013-02-04 11:32:00,
2013-02-04 05:33:00,64.0,61.0,29.92,South,180,5.0,5.0,91,0.00,,,0.00,TxWx,2013-02-04 11:33:00,
2013-02-04 05:35:00,64.0,61.0,29.92,SSE,157,6.0,6.0,91,0.00,,,0.00,TxWx,2013-02-04 11:35:00,
2013-02-04 05:38:00,64.0,61.0,29.92,SE,135,3.0,4.0,91,0.00,,,0.00,TxWx,2013-02-04 11:38:00,
2013-02-04 05:40:00,64.0,61.0,29.92,SSE,157,3.0,4.0,91,0.00,,,0.00,TxWx,2013-02-04 11:40:00,
2013-02-04 05:41:00,64.0,61.0,29.92,SSE,157,3.0,3.0,91,0.00,,,0.00,TxWx,2013-02-04 11:41:00,
2013-02-04 05:43:00,64.0,61.0,29.92,South,180,4.0,4.0,91,0.00,,,0.00,TxWx,2013-02-04 11:43:00,
2013-02-04 05:47:00,64.0,61.0,29.92,South,180,4.0,5.0,91,0.00,,,0.00,TxWx,2013-02-04 11:47:00,
2013-02-04 05:48:00,64.0,61.0,29.92,SSE,157,8.0,8.0,91,0.00,,,0.00,TxWx,2013-02-04 11:48:00,
2013-02-04 05:53:00,64.0,61.0,29.92,South,180,5.0,5.0,91,0.00,,,0.00,TxWx,2013-02-04 11:53:00,
2013-02-04 05:54:00,64.0,61.0,29.92,SSE,157,6.0,6.0,91,0.00,,,0.00,TxWx,2013-02-04 11:54:00,
2013-02-04 05:55:00,64.0,61.0,29.92,SSE,157,3.0,4.0,91,0.00,,,0.00,TxWx,2013-02-04 11:55:00,
2013-02-04 05:58:00,64.0,61.0,29.91,SSE,157,6.0,6.0,91,0.00,,,0.00,TxWx,2013-02-04 11:58:00,
2013-02-04 06:00:00,64.0,61.0,29.91,South,180,6.0,7.0,91,0.00,,,0.00,TxWx,2013-02-04 12:00:00,
2013-02-04 06:01:00,64.0,61.0,29.91,SSW,202,3.0,4.0,91,0.00,,,0.00,TxWx,2013-02-04 12:01:00,
2013-02-04 06:04:00,65.0,62.0,29.91,SSE,157,8.0,8.0,91,0.00,,,0.00,TxWx,2013-02-04 12:04:00,
2013-02-04 06:06:00,65.0,62.0,29.91,SSE,157,8.0,8.0,91,0.00,,,0.00,TxWx,2013-02-04 12:06:00,
2013-02-04 06:08:00,65.0,62.0,29.91,South,180,3.0,3.0,91,0.00,,,0.00,TxWx,2013-02-04 12:08:00,
2013-02-04 06:11:00,65.0,62.0,29.92,SE,135,4.0,4.0,91,0.00,,,0.00,TxWx,2013-02-04 12:11:00,
2013-02-04 06:12:00,65.0,62.0,29.92,SW,225,4.0,4.0,91,0.00,,,0.00,TxWx,2013-02-04 12:12:00,
2013-02-04 06:15:00,65.0,62.0,29.92,SSE,157,2.0,3.0,91,0.00,,,0.00,TxWx,2013-02-04 12:15:00,
2013-02-04 06:16:00,65.0,62.0,29.92,SSW,202,3.0,4.0,90,0.00,,,0.00,TxWx,2013-02-04 12:16:00,
2013-02-04 06:17:00,65.0,62.0,29.92,South,180,5.0,6.0,90,0.00,,,0.00,TxWx,2013-02-04 12:17:00,
2013-02-04 06:18:00,65.0,62.0,29.92,South,180,4.0,5.0,90,0.00,,,0.00,TxWx,2013-02-04 12:18:00,
2013-02-04 06:20:00,65.0,62.0,29.92,SSW,202,8.0,8.0,90,0.00,,,0.00,TxWx,2013-02-04 12:20:00,
2013-02-04 06:22:00,65.0,62.0,29.92,SE,135,6.0,7.0,90,0.00,,,0.00,TxWx,2013-02-04 12:22:00,
2013-02-04 06:23:00,65.0,62.0,29.92,South,180,5.0,5.0,90,0.00,,,0.00,TxWx,2013-02-04 12:23:00,
2013-02-04 06:24:00,65.0,62.0,29.92,South,180,5.0,5.0,90,0.00,,,0.00,TxWx,2013-02-04 12:24:00,
2013-02-04 06:27:00,65.0,62.0,29.93,SSE,157,3.0,3.0,90,0.00,,,0.00,TxWx,2013-02-04 12:27:00,
2013-02-04 06:28:00,65.0,62.0,29.93,SSW,202,4.0,5.0,90,0.00,,,0.00,TxWx,2013-02-04 12:28:00,
2013-02-04 06:33:00,65.0,62.0,29.92,SE,135,5.0,5.0,90,0.00,,,0.00,TxWx,2013-02-04 12:33:00,
2013-02-04 06:34:00,65.0,62.0,29.92,SSE,157,6.0,6.0,90,0.00,,,0.00,TxWx,2013-02-04 12:34:00,
2013-02-04 06:38:00,65.0,62.0,29.91,SSE,157,7.0,7.0,90,0.00,,,0.00,TxWx,2013-02-04 12:38:00,
2013-02-04 06:39:00,65.0,62.0,29.91,SE,135,5.0,6.0,90,0.00,,,0.00,TxWx,2013-02-04 12:39:00,
2013-02-04 06:41:00,65.0,62.0,29.92,SSE,157,5.0,5.0,90,0.00,,,0.00,TxWx,2013-02-04 12:41:00,
2013-02-04 06:44:00,65.0,62.0,29.91,South,180,6.0,6.0,90,0.00,,,0.00,TxWx,2013-02-04 12:44:00,
2013-02-04 06:45:00,65.0,62.0,29.91,South,180,8.0,9.0,90,0.00,,,0.00,TxWx,2013-02-04 12:45:00,
2013-02-04 06:46:00,65.0,62.0,29.91,SW,225,3.0,5.0,90,0.00,,,0.00,TxWx,2013-02-04 12:46:00,
2013-02-04 06:50:00,65.0,62.0,29.91,SSE,157,5.0,5.0,90,0.00,,,0.00,TxWx,2013-02-04 12:50:00,
2013-02-04 06:51:00,65.0,62.0,29.91,South,180,3.0,3.0,90,0.00,,,0.00,TxWx,2013-02-04 12:51:00,
2013-02-04 06:52:00,66.0,63.0,29.91,SSW,202,8.0,8.0,90,0.00,,,0.00,TxWx,2013-02-04 12:52:00,
2013-02-04 06:56:00,66.0,63.0,29.91,SE,135,5.0,6.0,90,0.00,,,0.00,TxWx,2013-02-04 12:56:00,
2013-02-04 06:58:00,66.0,63.0,29.91,SSE,157,6.0,8.0,90,0.00,,,0.00,TxWx,2013-02-04 12:58:00,
2013-02-04 06:59:00,66.0,63.0,29.91,SSW,202,6.0,8.0,90,0.00,,,0.00,TxWx,2013-02-04 12:59:00,
2013-02-04 07:02:00,66.0,63.0,29.91,South,180,6.0,6.0,90,0.00,,,0.00,TxWx,2013-02-04 13:02:00,
2013-02-04 07:04:00,66.0,63.0,29.91,SSE,157,5.0,6.0,89,0.00,,,0.00,TxWx,2013-02-04 13:04:00,
2013-02-04 07:07:00,66.0,63.0,29.91,SSW,202,5.0,6.0,89,0.00,,,0.00,TxWx,2013-02-04 13:07:00,
2013-02-04 07:08:00,66.0,63.0,29.91,SSE,157,6.0,8.0,89,0.00,,,0.00,TxWx,2013-02-04 13:08:00,
2013-02-04 07:09:00,66.0,63.0,29.91,South,180,5.0,5.0,89,0.00,,,0.00,TxWx,2013-02-04 13:09:00,
2013-02-04 07:11:00,66.0,63.0,29.91,SSE,157,6.0,6.0,89,0.00,,,0.00,TxWx,2013-02-04 13:11:00,
2013-02-04 07:13:00,66.0,63.0,29.91,SSE,157,9.0,9.0,89,0.00,,,0.00,TxWx,2013-02-04 13:13:00,
2013-02-04 07:17:00,66.0,63.0,29.91,South,180,4.0,4.0,89,0.00,,,0.00,TxWx,2013-02-04 13:17:00,
2013-02-04 07:19:00,66.0,63.0,29.91,SSE,157,6.0,6.0,89,0.00,,,0.00,TxWx,2013-02-04 13:19:00,
2013-02-04 07:22:00,66.0,63.0,29.91,SSW,202,6.0,8.0,90,0.00,,,0.00,TxWx,2013-02-04 13:22:00,
2013-02-04 07:24:00,66.0,63.0,29.91,SSE,157,5.0,5.0,90,0.00,,,0.00,TxWx,2013-02-04 13:24:00,
2013-02-04 07:25:00,66.0,63.0,29.91,South,180,5.0,6.0,89,0.00,,,0.00,TxWx,2013-02-04 13:25:00,
2013-02-04 07:27:00,66.0,63.0,29.91,SSE,157,5.0,5.0,90,0.00,,,0.00,TxWx,2013-02-04 13:27:00,
2013-02-04 07:30:00,66.0,63.0,29.91,South,180,5.0,5.0,90,0.00,,,0.00,TxWx,2013-02-04 13:30:00,
2013-02-04 07:32:00,66.0,63.0,29.91,SSW,202,9.0,10.0,90,0.00,,,0.00,TxWx,2013-02-04 13:32:00,
2013-02-04 07:33:00,66.0,63.0,29.92,South,180,6.0,6.0,90,0.00,,,0.00,TxWx,2013-02-04 13:33:00,
2013-02-04 07:35:00,66.0,63.0,29.91,SW,225,6.0,7.0,90,0.00,,,0.00,TxWx,2013-02-04 13:35:00,
2013-02-04 07:38:00,66.0,63.0,29.91,SSW,202,6.0,7.0,90,0.00,,,0.00,TxWx,2013-02-04 13:38:00,
2013-02-04 07:41:00,66.0,63.0,29.91,SSW,202,5.0,6.0,90,0.00,,,0.00,TxWx,2013-02-04 13:41:00,
2013-02-04 07:42:00,66.0,63.0,29.91,SSE,157,7.0,7.0,90,0.00,,,0.00,TxWx,2013-02-04 13:42:00,
2013-02-04 07:43:00,66.0,63.0,29.91,South,180,11.0,11.0,90,0.00,,,0.00,TxWx,2013-02-04 13:43:00,
2013-02-04 07:45:00,66.0,63.0,29.91,SSE,157,7.0,7.0,90,0.00,,,0.00,TxWx,2013-02-04 13:45:00,
2013-02-04 07:48:00,66.0,63.0,29.91,South,180,8.0,8.0,90,0.00,,,0.00,TxWx,2013-02-04 13:48:00,
2013-02-04 07:49:00,66.0,63.0,29.92,SSE,157,9.0,10.0,90,0.00,,,0.00,TxWx,2013-02-04 13:49:00,
2013-02-04 07:52:00,66.0,63.0,29.92,SSW,202,6.0,6.0,90,0.00,,,0.00,TxWx,2013-02-04 13:52:00,
2013-02-04 07:54:00,66.0,63.0,29.92,South,180,5.0,6.0,90,0.00,,,0.00,TxWx,2013-02-04 13:54:00,
2013-02-04 07:55:00,66.0,63.0,29.92,South,180,5.0,5.0,90,0.00,,,0.00,TxWx,2013-02-04 13:55:00,
2013-02-04 07:58:00,66.0,63.0,29.92,SSE,157,6.0,6.0,89,0.00,,,0.00,TxWx,2013-02-04 13:58:00,
2013-02-04 08:00:00,66.0,63.0,29.92,SSW,202,8.0,10.0,89,0.00,,,0.00,TxWx,2013-02-04 14:00:00,
2013-02-04 08:02:00,67.0,64.0,29.92,SSE,157,6.0,6.0,89,0.00,,,0.00,TxWx,2013-02-04 14:02:00,
2013-02-04 08:03:00,67.0,64.0,29.92,SSE,157,8.0,8.0,89,0.00,,,0.00,TxWx,2013-02-04 14:03:00,
2013-02-04 08:05:00,67.0,64.0,29.92,SSE,157,6.0,7.0,90,0.00,,,0.00,TxWx,2013-02-04 14:05:00,
2013-02-04 08:09:00,67.0,64.0,29.92,South,180,6.0,6.0,90,0.00,,,0.00,TxWx,2013-02-04 14:09:00,
2013-02-04 08:10:00,67.0,64.0,29.92,South,180,6.0,6.0,90,0.00,,,0.00,TxWx,2013-02-04 14:10:00,
2013-02-04 08:11:00,67.0,64.0,29.92,SSW,202,6.0,7.0,90,0.00,,,0.00,TxWx,2013-02-04 14:11:00,
2013-02-04 08:16:00,67.0,64.0,29.92,South,180,10.0,10.0,90,0.00,,,0.00,TxWx,2013-02-04 14:16:00,
2013-02-04 08:17:00,67.0,64.0,29.92,SSW,202,6.0,8.0,90,0.00,,,0.00,TxWx,2013-02-04 14:17:00,
2013-02-04 08:19:00,67.0,64.0,29.92,South,180,5.0,5.0,90,0.00,,,0.00,TxWx,2013-02-04 14:19:00,
2013-02-04 08:22:00,67.0,64.0,29.92,South,180,6.0,6.0,90,0.00,,,0.00,TxWx,2013-02-04 14:22:00,
2013-02-04 08:23:00,67.0,64.0,29.92,SSW,202,6.0,7.0,90,0.00,,,0.00,TxWx,2013-02-04 14:23:00,
2013-02-04 08:24:00,67.0,64.0,29.92,SW,225,9.0,9.0,90,0.00,,,0.00,TxWx,2013-02-04 14:24:00,
2013-02-04 08:28:00,67.0,64.0,29.92,SSW,202,9.0,10.0,89,0.00,,,0.00,TxWx,2013-02-04 14:28:00,
2013-02-04 08:30:00,67.0,64.0,29.92,SW,225,11.0,11.0,89,0.00,,,0.00,TxWx,2013-02-04 14:30:00,
2013-02-04 08:33:00,67.0,64.0,29.92,SSW,202,6.0,6.0,89,0.00,,,0.00,TxWx,2013-02-04 14:33:00,
2013-02-04 08:35:00,67.0,64.0,29.92,South,180,6.0,6.0,89,0.00,,,0.00,TxWx,2013-02-04 14:35:00,
2013-02-04 08:36:00,67.0,64.0,29.92,SSW,202,9.0,10.0,89,0.00,,,0.00,TxWx,2013-02-04 14:36:00,
2013-02-04 08:37:00,67.0,64.0,29.92,South,180,10.0,10.0,89,0.00,,,0.00,TxWx,2013-02-04 14:37:00,
2013-02-04 08:40:00,67.0,64.0,29.92,South,180,7.0,8.0,89,0.00,,,0.00,TxWx,2013-02-04 14:40:00,
2013-02-04 08:43:00,67.0,64.0,29.92,SSE,157,3.0,3.0,89,0.00,,,0.00,TxWx,2013-02-04 14:43:00,
2013-02-04 08:45:00,67.0,64.0,29.92,SW,225,7.0,7.0,90,0.00,,,0.00,TxWx,2013-02-04 14:45:00,
2013-02-04 08:46:00,67.0,64.0,29.92,SSW,202,12.0,12.0,89,0.00,,,0.00,TxWx,2013-02-04 14:46:00,
2013-02-04 08:49:00,67.0,64.0,29.92,South,180,6.0,6.0,89,0.00,,,0.00,TxWx,2013-02-04 14:49:00,
2013-02-04 08:51:00,67.0,64.0,29.92,SW,225,6.0,6.0,89,0.00,,,0.00,TxWx,2013-02-04 14:51:00,
2013-02-04 08:52:00,67.0,64.0,29.92,SSW,202,11.0,12.0,89,0.00,,,0.00,TxWx,2013-02-04 14:52:00,
2013-02-04 08:54:00,68.0,65.0,29.93,SSW,202,8.0,8.0,89,0.00,,,0.00,TxWx,2013-02-04 14:54:00,
2013-02-04 08:56:00,68.0,65.0,29.92,SSE,157,5.0,5.0,89,0.00,,,0.00,TxWx,2013-02-04 14:56:00,
2013-02-04 08:57:00,68.0,65.0,29.92,SSW,202,4.0,5.0,89,0.00,,,0.00,TxWx,2013-02-04 14:57:00,
2013-02-04 08:58:00,68.0,65.0,29.93,SW,225,9.0,11.0,89,0.00,,,0.00,TxWx,2013-02-04 14:58:00,
2013-02-04 09:00:00,68.0,65.0,29.92,SW,225,9.0,10.0,89,0.00,,,0.00,TxWx,2013-02-04 15:00:00,
2013-02-04 09:02:00,68.0,65.0,29.93,SSW,202,6.0,6.0,89,0.00,,,0.00,TxWx,2013-02-04 15:02:00,
2013-02-04 09:04:00,68.0,65.0,29.93,SW,225,6.0,7.0,89,0.00,,,0.00,TxWx,2013-02-04 15:04:00,
2013-02-04 09:06:00,68.0,64.0,29.93,WSW,247,5.0,5.0,89,0.00,,,0.00,TxWx,2013-02-04 15:06:00,
2013-02-04 09:07:00,68.0,64.0,29.93,SSW,202,5.0,5.0,89,0.00,,,0.00,TxWx,2013-02-04 15:07:00,
2013-02-04 09:09:00,68.0,64.0,29.93,SSW,202,6.0,7.0,89,0.00,,,0.00,TxWx,2013-02-04 15:09:00,
2013-02-04 09:10:00,68.0,64.0,29.93,SSW,202,6.0,6.0,89,0.00,,,0.00,TxWx,2013-02-04 15:10:00,
2013-02-04 09:13:00,68.0,64.0,29.93,South,180,5.0,5.0,89,0.00,,,0.00,TxWx,2013-02-04 15:13:00,
2013-02-04 09:15:00,68.0,64.0,29.92,SSW,202,4.0,5.0,89,0.00,,,0.00,TxWx,2013-02-04 15:15:00,
2013-02-04 09:18:00,68.0,64.0,29.92,SW,225,5.0,5.0,89,0.00,,,0.00,TxWx,2013-02-04 15:18:00,
2013-02-04 09:22:00,68.0,64.0,29.92,SSW,202,10.0,10.0,88,0.00,,,0.00,TxWx,2013-02-04 15:22:00,
2013-02-04 09:23:00,68.0,64.0,29.91,SSE,157,9.0,10.0,88,0.00,,,0.00,TxWx,2013-02-04 15:23:00,
2013-02-04 09:29:00,68.0,64.0,29.91,SSW,202,9.0,9.0,88,0.00,,,0.00,TxWx,2013-02-04 15:29:00,
2013-02-04 09:30:00,68.0,64.0,29.91,SSE,157,8.0,8.0,87,0.00,,,0.00,TxWx,2013-02-04 15:30:00,
2013-02-04 09:31:00,68.0,64.0,29.91,SSW,202,8.0,9.0,87,0.00,,,0.00,TxWx,2013-02-04 15:31:00,
2013-02-04 09:34:00,69.0,65.0,29.91,SSW,202,11.0,11.0,87,0.00,,,0.00,TxWx,2013-02-04 15:34:00,
2013-02-04 09:35:00,69.0,65.0,29.91,South,180,11.0,11.0,87,0.00,,,0.00,TxWx,2013-02-04 15:35:00,
2013-02-04 09:36:00,69.0,65.0,29.91,South,180,9.0,13.0,87,0.00,,,0.00,TxWx,2013-02-04 15:36:00,
2013-02-04 09:37:00,69.0,65.0,29.92,SSW,202,7.0,8.0,87,0.00,,,0.00,TxWx,2013-02-04 15:37:00,
2013-02-04 09:41:00,68.0,64.0,29.92,SSW,202,9.0,9.0,87,0.00,,,0.00,TxWx,2013-02-04 15:41:00,
2013-02-04 09:43:00,68.0,64.0,29.92,SSW,202,10.0,10.0,87,0.00,,,0.00,TxWx,2013-02-04 15:43:00,
2013-02-04 09:45:00,69.0,65.0,29.92,SSW,202,10.0,10.0,87,0.00,,,0.00,TxWx,2013-02-04 15:45:00,
2013-02-04 09:47:00,69.0,65.0,29.92,SSW,202,13.0,13.0,87,0.00,,,0.00,TxWx,2013-02-04 15:47:00,
2013-02-04 09:50:00,69.0,65.0,29.91,SSW,202,10.0,10.0,87,0.00,,,0.00,TxWx,2013-02-04 15:50:00,
2013-02-04 09:51:00,69.0,65.0,29.91,SSW,202,10.0,10.0,87,0.00,,,0.00,TxWx,2013-02-04 15:51:00,
2013-02-04 09:52:00,69.0,65.0,29.91,SSW,202,10.0,12.0,87,0.00,,,0.00,TxWx,2013-02-04 15:52:00,
2013-02-04 09:53:00,69.0,65.0,29.91,SSW,202,10.0,10.0,86,0.00,,,0.00,TxWx,2013-02-04 15:53:00,
2013-02-04 09:57:00,69.0,65.0,29.91,SSE,157,6.0,6.0,86,0.00,,,0.00,TxWx,2013-02-04 15:57:00,
2013-02-04 09:58:00,69.0,65.0,29.91,SSW,202,5.0,7.0,86,0.00,,,0.00,TxWx,2013-02-04 15:58:00,
2013-02-04 09:59:00,70.0,66.0,29.91,South,180,8.0,8.0,86,0.00,,,0.00,TxWx,2013-02-04 15:59:00,
2013-02-04 10:02:00,70.0,65.0,29.91,SSW,202,10.0,10.0,85,0.00,,,0.00,TxWx,2013-02-04 16:02:00,
2013-02-04 10:04:00,70.0,65.0,29.90,South,180,6.0,8.0,85,0.00,,,0.00,TxWx,2013-02-04 16:04:00,
2013-02-04 10:06:00,71.0,66.0,29.90,WSW,247,5.0,5.0,85,0.00,,,0.00,TxWx,2013-02-04 16:06:00,
2013-02-04 10:09:00,71.0,66.0,29.90,SSE,157,6.0,7.0,84,0.00,,,0.00,TxWx,2013-02-04 16:09:00,
2013-02-04 10:10:00,71.0,66.0,29.90,South,180,6.0,6.0,84,0.00,,,0.00,TxWx,2013-02-04 16:10:00,
2013-02-04 10:11:00,71.0,66.0,29.90,SE,135,10.0,10.0,83,0.00,,,0.00,TxWx,2013-02-04 16:11:00,
2013-02-04 10:15:00,70.0,65.0,29.90,SSE,157,9.0,11.0,83,0.00,,,0.00,TxWx,2013-02-04 16:15:00,
2013-02-04 10:16:00,70.0,65.0,29.89,SSE,157,11.0,11.0,83,0.00,,,0.00,TxWx,2013-02-04 16:16:00,
2013-02-04 10:17:00,70.0,65.0,29.89,SSE,157,9.0,10.0,83,0.00,,,0.00,TxWx,2013-02-04 16:17:00,
2013-02-04 10:21:00,70.0,65.0,29.89,SSW,202,14.0,15.0,84,0.00,,,0.00,TxWx,2013-02-04 16:21:00,
2013-02-04 10:22:00,70.0,65.0,29.89,South,180,10.0,10.0,84,0.00,,,0.00,TxWx,2013-02-04 16:22:00,
2013-02-04 10:23:00,70.0,65.0,29.89,SSW,202,11.0,12.0,84,0.00,,,0.00,TxWx,2013-02-04 16:23:00,
2013-02-04 10:26:00,70.0,65.0,29.89,SSW,202,9.0,9.0,84,0.00,,,0.00,TxWx,2013-02-04 16:26:00,
2013-02-04 10:28:00,70.0,65.0,29.89,South,180,9.0,11.0,84,0.00,,,0.00,TxWx,2013-02-04 16:28:00,
2013-02-04 10:29:00,70.0,65.0,29.89,South,180,11.0,12.0,84,0.00,,,0.00,TxWx,2013-02-04 16:29:00,
2013-02-04 10:30:00,70.0,65.0,29.88,SE,135,13.0,13.0,84,0.00,,,0.00,TxWx,2013-02-04 16:30:00,
2013-02-04 10:33:00,70.0,65.0,29.88,South,180,13.0,15.0,84,0.00,,,0.00,TxWx,2013-02-04 16:33:00,
2013-02-04 10:34:00,70.0,65.0,29.88,South,180,13.0,19.0,84,0.00,,,0.00,TxWx,2013-02-04 16:34:00,
2013-02-04 10:36:00,70.0,65.0,29.88,South,180,12.0,14.0,84,0.00,,,0.00,TxWx,2013-02-04 16:36:00,
2013-02-04 10:39:00,70.0,65.0,29.87,SSE,157,8.0,8.0,84,0.00,,,0.00,TxWx,2013-02-04 16:39:00,
2013-02-04 10:41:00,71.0,66.0,29.87,SSE,157,14.0,14.0,84,0.00,,,0.00,TxWx,2013-02-04 16:41:00,
2013-02-04 10:42:00,71.0,66.0,29.87,SSW,202,17.0,17.0,84,0.00,,,0.00,TxWx,2013-02-04 16:42:00,
2013-02-04 10:43:00,71.0,66.0,29.87,SSW,202,11.0,12.0,84,0.00,,,0.00,TxWx,2013-02-04 16:43:00,
2013-02-04 10:44:00,71.0,66.0,29.87,SW,225,6.0,7.0,84,0.00,,,0.00,TxWx,2013-02-04 16:44:00,
2013-02-04 10:48:00,71.0,65.0,29.87,SSE,157,8.0,8.0,83,0.00,,,0.00,TxWx,2013-02-04 16:48:00,
2013-02-04 10:49:00,71.0,65.0,29.88,SSE,157,6.0,8.0,83,0.00,,,0.00,TxWx,2013-02-04 16:49:00,
2013-02-04 10:50:00,71.0,65.0,29.87,SSW,202,17.0,19.0,83,0.00,,,0.00,TxWx,2013-02-04 16:50:00,
2013-02-04 10:51:00,71.0,65.0,29.87,SSE,157,11.0,12.0,82,0.00,,,0.00,TxWx,2013-02-04 16:51:00,
2013-02-04 10:54:00,71.0,65.0,29.88,SSW,202,6.0,6.0,82,0.00,,,0.00,TxWx,2013-02-04 16:54:00,
2013-02-04 10:55:00,71.0,65.0,29.88,SW,225,15.0,17.0,82,0.00,,,0.00,TxWx,2013-02-04 16:55:00,
2013-02-04 10:57:00,71.0,65.0,29.88,SSW,202,10.0,12.0,82,0.00,,,0.00,TxWx,2013-02-04 16:57:00,
2013-02-04 10:59:00,71.0,65.0,29.89,SSE,157,13.0,13.0,82,0.00,,,0.00,TxWx,2013-02-04 16:59:00,
2013-02-04 11:00:00,71.0,65.0,29.89,South,180,14.0,14.0,82,0.00,,,0.00,TxWx,2013-02-04 17:00:00,
2013-02-04 11:03:00,71.0,65.0,29.89,SSW,202,15.0,16.0,82,0.00,,,0.00,TxWx,2013-02-04 17:03:00,
2013-02-04 11:05:00,71.0,65.0,29.89,SW,225,9.0,13.0,82,0.00,,,0.00,TxWx,2013-02-04 17:05:00,
2013-02-04 11:06:00,71.0,65.0,29.89,SSW,202,11.0,11.0,82,0.00,,,0.00,TxWx,2013-02-04 17:06:00,
2013-02-04 11:08:00,71.0,65.0,29.89,SSW,202,17.0,17.0,83,0.00,,,0.00,TxWx,2013-02-04 17:08:00,
2013-02-04 11:09:00,71.0,65.0,29.89,South,180,16.0,16.0,83,0.00,,,0.00,TxWx,2013-02-04 17:09:00,
2013-02-04 11:11:00,71.0,65.0,29.90,SSE,157,9.0,12.0,83,0.00,,,0.00,TxWx,2013-02-04 17:11:00,
2013-02-04 11:14:00,71.0,65.0,29.90,SW,225,10.0,10.0,82,0.00,,,0.00,TxWx,2013-02-04 17:14:00,
2013-02-04 11:16:00,72.0,66.0,29.91,SW,225,9.0,11.0,83,0.00,,,0.00,TxWx,2013-02-04 17:16:00,
2013-02-04 11:17:00,72.0,66.0,29.90,SW,225,6.0,7.0,82,0.00,,,0.00,TxWx,2013-02-04 17:17:00,
2013-02-04 11:20:00,72.0,66.0,29.90,South,180,6.0,8.0,82,0.00,,,0.00,TxWx,2013-02-04 17:20:00,
2013-02-04 11:22:00,72.0,66.0,29.90,South,180,10.0,10.0,82,0.00,,,0.00,TxWx,2013-02-04 17:22:00,
2013-02-04 11:23:00,72.0,66.0,29.90,SSE,157,11.0,13.0,82,0.00,,,0.00,TxWx,2013-02-04 17:23:00,
2013-02-04 11:25:00,72.0,66.0,29.90,SSW,202,14.0,14.0,81,0.00,,,0.00,TxWx,2013-02-04 17:25:00,
2013-02-04 11:26:00,72.0,66.0,29.90,SSW,202,15.0,17.0,81,0.00,,,0.00,TxWx,2013-02-04 17:26:00,
2013-02-04 11:28:00,72.0,66.0,29.90,South,180,8.0,11.0,81,0.00,,,0.00,TxWx,2013-02-04 17:28:00,
2013-02-04 11:31:00,72.0,66.0,29.90,SSW,202,16.0,16.0,81,0.00,,,0.00,TxWx,2013-02-04 17:31:00,
2013-02-04 11:32:00,72.0,66.0,29.90,South,180,10.0,10.0,81,0.00,,,0.00,TxWx,2013-02-04 17:32:00,
2013-02-04 11:34:00,73.0,67.0,29.90,SSE,157,6.0,6.0,81,0.00,,,0.00,TxWx,2013-02-04 17:34:00,
2013-02-04 11:37:00,72.0,65.0,29.90,SSW,202,13.0,13.0,80,0.00,,,0.00,TxWx,2013-02-04 17:37:00,
2013-02-04 11:40:00,72.0,65.0,29.89,SSW,202,10.0,11.0,79,0.00,,,0.00,TxWx,2013-02-04 17:40:00,
2013-02-04 11:41:00,72.0,65.0,29.89,SW,225,14.0,14.0,79,0.00,,,0.00,TxWx,2013-02-04 17:41:00,
2013-02-04 11:43:00,72.0,65.0,29.89,WSW,247,6.0,8.0,79,0.00,,,0.00,TxWx,2013-02-04 17:43:00,
2013-02-04 11:44:00,72.0,65.0,29.90,SW,225,10.0,10.0,79,0.00,,,0.00,TxWx,2013-02-04 17:44:00,
2013-02-04 11:45:00,73.0,66.0,29.90,SSE,157,14.0,17.0,79,0.00,,,0.00,TxWx,2013-02-04 17:45:00,
2013-02-04 11:46:00,73.0,66.0,29.89,South,180,14.0,14.0,79,0.00,,,0.00,TxWx,2013-02-04 17:46:00,
2013-02-04 11:49:00,72.0,65.0,29.90,South,180,13.0,14.0,78,0.00,,,0.00,TxWx,2013-02-04 17:49:00,
2013-02-04 11:50:00,72.0,65.0,29.90,SW,225,12.0,12.0,78,0.00,,,0.00,TxWx,2013-02-04 17:50:00,
2013-02-04 11:51:00,72.0,65.0,29.89,SSW,202,17.0,17.0,78,0.00,,,0.00,TxWx,2013-02-04 17:51:00,
2013-02-04 11:52:00,72.0,65.0,29.89,SSW,202,10.0,11.0,78,0.00,,,0.00,TxWx,2013-02-04 17:52:00,
2013-02-04 11:54:00,73.0,66.0,29.89,SSE,157,5.0,6.0,79,0.00,,,0.00,TxWx,2013-02-04 17:54:00,
2013-02-04 11:55:00,72.0,65.0,29.90,South,180,11.0,11.0,78,0.00,,,0.00,TxWx,2013-02-04 17:55:00,
2013-02-04 11:56:00,72.0,65.0,29.89,South,180,6.0,6.0,79,0.00,,,0.00,TxWx,2013-02-04 17:56:00,
2013-02-04 11:58:00,72.0,65.0,29.89,South,180,7.0,7.0,78,0.00,,,0.00,TxWx,2013-02-04 17:58:00,
2013-02-04 12:00:00,72.0,65.0,29.89,SSW,202,12.0,12.0,78,0.00,,,0.00,TxWx,2013-02-04 18:00:00,
2013-02-04 12:01:00,72.0,65.0,29.89,SSW,202,11.0,11.0,78,0.00,,,0.00,TxWx,2013-02-04 18:01:00,
2013-02-04 12:03:00,72.0,65.0,29.89,South,180,11.0,11.0,78,0.00,,,0.00,TxWx,2013-02-04 18:03:00,
2013-02-04 12:06:00,73.0,66.0,29.88,SSW,202,12.0,14.0,78,0.00,,,0.00,TxWx,2013-02-04 18:06:00,
2013-02-04 12:10:00,73.0,65.0,29.88,South,180,10.0,11.0,77,0.00,,,0.00,TxWx,2013-02-04 18:10:00,
2013-02-04 12:11:00,73.0,65.0,29.88,SSE,157,9.0,9.0,76,0.00,,,0.00,TxWx,2013-02-04 18:11:00,
2013-02-04 12:13:00,73.0,65.0,29.88,SSW,202,8.0,10.0,77,0.00,,,0.00,TxWx,2013-02-04 18:13:00,
2013-02-04 12:15:00,73.0,65.0,29.88,SSW,202,10.0,10.0,76,0.00,,,0.00,TxWx,2013-02-04 18:15:00,
2013-02-04 12:16:00,73.0,65.0,29.88,SSW,202,12.0,13.0,76,0.00,,,0.00,TxWx,2013-02-04 18:16:00,
2013-02-04 12:18:00,73.0,65.0,29.88,South,180,13.0,13.0,76,0.00,,,0.00,TxWx,2013-02-04 18:18:00,
2013-02-04 12:20:00,73.0,65.0,29.87,SSW,202,10.0,10.0,76,0.00,,,0.00,TxWx,2013-02-04 18:20:00,
2013-02-04 12:22:00,73.0,65.0,29.87,SSW,202,9.0,9.0,76,0.00,,,0.00,TxWx,2013-02-04 18:22:00,
2013-02-04 12:23:00,73.0,65.0,29.87,SSW,202,13.0,13.0,76,0.00,,,0.00,TxWx,2013-02-04 18:23:00,
2013-02-04 12:27:00,73.0,65.0,29.87,SSW,202,8.0,8.0,76,0.00,,,0.00,TxWx,2013-02-04 18:27:00,
2013-02-04 12:28:00,73.0,65.0,29.87,South,180,8.0,8.0,76,0.00,,,0.00,TxWx,2013-02-04 18:28:00,
2013-02-04 12:30:00,73.0,65.0,29.87,South,180,14.0,15.0,76,0.00,,,0.00,TxWx,2013-02-04 18:30:00,
2013-02-04 12:32:00,73.0,65.0,29.86,SSW,202,7.0,8.0,76,0.00,,,0.00,TxWx,2013-02-04 18:32:00,
2013-02-04 12:33:00,73.0,65.0,29.86,South,180,11.0,11.0,77,0.00,,,0.00,TxWx,2013-02-04 18:33:00,
2013-02-04 12:36:00,73.0,65.0,29.86,SW,225,11.0,13.0,76,0.00,,,0.00,TxWx,2013-02-04 18:36:00,
2013-02-04 12:37:00,73.0,65.0,29.86,South,180,14.0,16.0,76,0.00,,,0.00,TxWx,2013-02-04 18:37:00,
2013-02-04 12:39:00,73.0,65.0,29.86,SE,135,11.0,11.0,77,0.00,,,0.00,TxWx,2013-02-04 18:39:00,
2013-02-04 12:40:00,73.0,65.0,29.86,SSE,157,16.0,19.0,76,0.00,,,0.00,TxWx,2013-02-04 18:40:00,
2013-02-04 12:42:00,73.0,65.0,29.86,South,180,7.0,10.0,77,0.00,,,0.00,TxWx,2013-02-04 18:42:00,
2013-02-04 12:45:00,74.0,66.0,29.86,SSW,202,13.0,13.0,75,0.00,,,0.00,TxWx,2013-02-04 18:45:00,
2013-02-04 12:47:00,74.0,66.0,29.86,South,180,6.0,6.0,76,0.00,,,0.00,TxWx,2013-02-04 18:47:00,
2013-02-04 12:50:00,73.0,64.0,29.86,South,180,12.0,16.0,75,0.00,,,0.00,TxWx,2013-02-04 18:50:00,
2013-02-04 12:51:00,74.0,66.0,29.86,SSW,202,14.0,14.0,76,0.00,,,0.00,TxWx,2013-02-04 18:51:00,
2013-02-04 12:54:00,74.0,66.0,29.85,South,180,8.0,8.0,76,0.00,,,0.00,TxWx,2013-02-04 18:54:00,
2013-02-04 12:55:00,74.0,65.0,29.86,SW,225,10.0,10.0,75,0.00,,,0.00,TxWx,2013-02-04 18:55:00,
2013-02-04 12:56:00,74.0,65.0,29.86,SSW,202,11.0,11.0,75,0.00,,,0.00,TxWx,2013-02-04 18:56:00,
2013-02-04 12:57:00,74.0,66.0,29.85,SSE,157,8.0,9.0,75,0.00,,,0.00,TxWx,2013-02-04 18:57:00,
2013-02-04 13:00:00,73.0,64.0,29.86,SE,135,10.0,11.0,75,0.00,,,0.00,TxWx,2013-02-04 19:00:00,
2013-02-04 13:02:00,73.0,65.0,29.85,SSE,157,14.0,16.0,75,0.00,,,0.00,TxWx,2013-02-04 19:02:00,
2013-02-04 13:03:00,73.0,65.0,29.85,South,180,13.0,13.0,76,0.00,,,0.00,TxWx,2013-02-04 19:03:00,
2013-02-04 13:05:00,73.0,65.0,29.85,SSE,157,8.0,8.0,76,0.00,,,0.00,TxWx,2013-02-04 19:05:00,
2013-02-04 13:08:00,73.0,65.0,29.85,SE,135,11.0,11.0,77,0.00,,,0.00,TxWx,2013-02-04 19:08:00,
2013-02-04 13:09:00,73.0,65.0,29.85,SSW,202,11.0,11.0,76,0.00,,,0.00,TxWx,2013-02-04 19:09:00,
2013-02-04 13:11:00,73.0,65.0,29.85,South,180,10.0,10.0,76,0.00,,,0.00,TxWx,2013-02-04 19:11:00,
2013-02-04 13:13:00,74.0,66.0,29.85,South,180,6.0,6.0,76,0.00,,,0.00,TxWx,2013-02-04 19:13:00,
2013-02-04 13:15:00,74.0,66.0,29.85,SSW,202,5.0,5.0,77,0.00,,,0.00,TxWx,2013-02-04 19:15:00,
2013-02-04 13:16:00,74.0,66.0,29.84,SSW,202,7.0,7.0,76,0.00,,,0.00,TxWx,2013-02-04 19:16:00,
2013-02-04 13:18:00,74.0,66.0,29.84,South,180,7.0,7.0,76,0.00,,,0.00,TxWx,2013-02-04 19:18:00,
2013-02-04 13:22:00,74.0,66.0,29.84,SSE,157,9.0,10.0,76,0.00,,,0.00,TxWx,2013-02-04 19:22:00,
2013-02-04 13:23:00,73.0,65.0,29.84,South,180,10.0,11.0,76,0.00,,,0.00,TxWx,2013-02-04 19:23:00,
2013-02-04 13:25:00,74.0,66.0,29.84,SE,135,8.0,8.0,77,0.00,,,0.00,TxWx,2013-02-04 19:25:00,
2013-02-04 13:28:00,74.0,66.0,29.84,South,180,11.0,11.0,77,0.00,,,0.00,TxWx,2013-02-04 19:28:00,
2013-02-04 13:29:00,74.0,66.0,29.84,SW,225,10.0,10.0,77,0.00,,,0.00,TxWx,2013-02-04 19:29:00,
2013-02-04 13:30:00,74.0,66.0,29.84,SSW,202,14.0,15.0,76,0.00,,,0.00,TxWx,2013-02-04 19:30:00,
2013-02-04 13:35:00,74.0,66.0,29.83,SSW,202,12.0,13.0,76,0.00,,,0.00,TxWx,2013-02-04 19:35:00,
2013-02-04 13:36:00,74.0,66.0,29.83,SSW,202,11.0,11.0,76,0.00,,,0.00,TxWx,2013-02-04 19:36:00,
2013-02-04 13:37:00,74.0,66.0,29.83,South,180,11.0,12.0,76,0.00,,,0.00,TxWx,2013-02-04 19:37:00,
2013-02-04 13:40:00,74.0,66.0,29.83,SSW,202,4.0,5.0,76,0.00,,,0.00,TxWx,2013-02-04 19:40:00,
2013-02-04 13:42:00,74.0,66.0,29.83,South,180,10.0,12.0,76,0.00,,,0.00,TxWx,2013-02-04 19:42:00,
2013-02-04 13:45:00,74.0,66.0,29.82,South,180,11.0,11.0,76,0.00,,,0.00,TxWx,2013-02-04 19:45:00,
2013-02-04 13:46:00,74.0,66.0,29.82,South,180,11.0,11.0,76,0.00,,,0.00,TxWx,2013-02-04 19:46:00,
2013-02-04 13:47:00,73.0,65.0,29.82,SW,225,11.0,15.0,76,0.00,,,0.00,TxWx,2013-02-04 19:47:00,
2013-02-04 13:48:00,74.0,66.0,29.82,South,180,9.0,11.0,76,0.00,,,0.00,TxWx,2013-02-04 19:48:00,
2013-02-04 13:51:00,73.0,65.0,29.82,SSE,157,14.0,14.0,76,0.00,,,0.00,TxWx,2013-02-04 19:51:00,
2013-02-04 13:54:00,74.0,66.0,29.82,South,180,10.0,11.0,76,0.00,,,0.00,TxWx,2013-02-04 19:54:00,
2013-02-04 13:55:00,73.0,65.0,29.82,SE,135,13.0,14.0,76,0.00,,,0.00,TxWx,2013-02-04 19:55:00,
2013-02-04 13:56:00,73.0,65.0,29.82,SE,135,10.0,11.0,76,0.00,,,0.00,TxWx,2013-02-04 19:56:00,
2013-02-04 14:00:00,74.0,66.0,29.81,South,180,11.0,11.0,76,0.00,,,0.00,TxWx,2013-02-04 20:00:00,
2013-02-04 14:01:00,74.0,66.0,29.81,SSE,157,5.0,7.0,76,0.00,,,0.00,TxWx,2013-02-04 20:01:00,
2013-02-04 14:06:00,74.0,65.0,29.81,South,180,12.0,13.0,75,0.00,,,0.00,TxWx,2013-02-04 20:06:00,
2013-02-04 14:07:00,74.0,65.0,29.81,South,180,14.0,14.0,74,0.00,,,0.00,TxWx,2013-02-04 20:07:00,
2013-02-04 14:09:00,75.0,66.0,29.81,South,180,9.0,9.0,74,0.00,,,0.00,TxWx,2013-02-04 20:09:00,
2013-02-04 14:11:00,74.0,65.0,29.81,SE,135,10.0,10.0,73,0.00,,,0.00,TxWx,2013-02-04 20:11:00,
2013-02-04 14:13:00,75.0,66.0,29.81,SSE,157,10.0,10.0,74,0.00,,,0.00,TxWx,2013-02-04 20:13:00,
2013-02-04 14:14:00,74.0,65.0,29.81,SSE,157,11.0,11.0,74,0.00,,,0.00,TxWx,2013-02-04 20:14:00,
2013-02-04 14:18:00,75.0,66.0,29.81,SE,135,7.0,8.0,74,0.00,,,0.00,TxWx,2013-02-04 20:18:00,
2013-02-04 14:19:00,75.0,66.0,29.80,SSE,157,9.0,13.0,74,0.00,,,0.00,TxWx,2013-02-04 20:19:00,
2013-02-04 14:20:00,75.0,66.0,29.80,SE,135,6.0,6.0,74,0.00,,,0.00,TxWx,2013-02-04 20:20:00,
2013-02-04 14:23:00,75.0,66.0,29.80,South,180,8.0,10.0,73,0.00,,,0.00,TxWx,2013-02-04 20:23:00,
2013-02-04 14:24:00,75.0,66.0,29.80,SSE,157,6.0,6.0,73,0.00,,,0.00,TxWx,2013-02-04 20:24:00,
2013-02-04 14:26:00,75.0,65.0,29.80,SSE,157,9.0,10.0,72,0.00,,,0.00,TxWx,2013-02-04 20:26:00,
2013-02-04 14:27:00,75.0,66.0,29.80,SSE,157,10.0,11.0,73,0.00,,,0.00,TxWx,2013-02-04 20:27:00,
2013-02-04 14:30:00,74.0,64.0,29.80,South,180,16.0,16.0,72,0.00,,,0.00,TxWx,2013-02-04 20:30:00,
2013-02-04 14:32:00,74.0,65.0,29.80,SSE,157,13.0,13.0,73,0.00,,,0.00,TxWx,2013-02-04 20:32:00,
2013-02-04 14:33:00,75.0,66.0,29.79,SE,135,6.0,7.0,73,0.00,,,0.00,TxWx,2013-02-04 20:33:00,
2013-02-04 14:35:00,74.0,65.0,29.80,SSE,157,13.0,13.0,73,0.00,,,0.00,TxWx,2013-02-04 20:35:00,
2013-02-04 14:37:00,74.0,65.0,29.80,SW,225,10.0,11.0,73,0.00,,,0.00,TxWx,2013-02-04 20:37:00,
2013-02-04 14:38:00,75.0,66.0,29.80,SSE,157,11.0,11.0,73,0.00,,,0.00,TxWx,2013-02-04 20:38:00,
2013-02-04 14:39:00,75.0,66.0,29.79,SSW,202,9.0,10.0,73,0.00,,,0.00,TxWx,2013-02-04 20:39:00,
2013-02-04 14:40:00,75.0,66.0,29.79,SSW,202,9.0,9.0,74,0.00,,,0.00,TxWx,2013-02-04 20:40:00,
2013-02-04 14:42:00,74.0,65.0,29.80,SE,135,9.0,9.0,73,0.00,,,0.00,TxWx,2013-02-04 20:42:00,
2013-02-04 14:44:00,74.0,65.0,29.79,SE,135,14.0,14.0,74,0.00,,,0.00,TxWx,2013-02-04 20:44:00,
2013-02-04 14:46:00,74.0,65.0,29.80,SE,135,12.0,14.0,74,0.00,,,0.00,TxWx,2013-02-04 20:46:00,
2013-02-04 14:47:00,74.0,65.0,29.79,SSE,157,14.0,16.0,74,0.00,,,0.00,TxWx,2013-02-04 20:47:00,
2013-02-04 14:50:00,74.0,65.0,29.79,South,180,18.0,18.0,74,0.00,,,0.00,TxWx,2013-02-04 20:50:00,
2013-02-04 14:51:00,74.0,65.0,29.80,SSE,157,13.0,14.0,74,0.00,,,0.00,TxWx,2013-02-04 20:51:00,
2013-02-04 14:53:00,74.0,65.0,29.80,SSE,157,11.0,14.0,74,0.00,,,0.00,TxWx,2013-02-04 20:53:00,
2013-02-04 14:55:00,74.0,65.0,29.79,SE,135,10.0,12.0,74,0.00,,,0.00,TxWx,2013-02-04 20:55:00,
2013-02-04 14:57:00,75.0,66.0,29.79,SSE,157,12.0,12.0,74,0.00,,,0.00,TxWx,2013-02-04 20:57:00,
2013-02-04 14:59:00,74.0,65.0,29.79,South,180,14.0,14.0,74,0.00,,,0.00,TxWx,2013-02-04 20:59:00,
2013-02-04 15:01:00,75.0,66.0,29.79,SSW,202,10.0,11.0,74,0.00,,,0.00,TxWx,2013-02-04 21:01:00,
2013-02-04 15:02:00,74.0,65.0,29.79,SSW,202,11.0,11.0,74,0.00,,,0.00,TxWx,2013-02-04 21:02:00,
2013-02-04 15:05:00,75.0,66.0,29.79,SSE,157,8.0,10.0,74,0.00,,,0.00,TxWx,2013-02-04 21:05:00,
2013-02-04 15:06:00,74.0,65.0,29.79,SE,135,11.0,12.0,74,0.00,,,0.00,TxWx,2013-02-04 21:06:00,
2013-02-04 15:09:00,74.0,65.0,29.79,SSW,202,13.0,13.0,74,0.00,,,0.00,TxWx,2013-02-04 21:09:00,
2013-02-04 15:11:00,74.0,65.0,29.79,South,180,13.0,13.0,75,0.00,,,0.00,TxWx,2013-02-04 21:11:00,
2013-02-04 15:14:00,75.0,66.0,29.79,South,180,4.0,5.0,75,0.00,,,0.00,TxWx,2013-02-04 21:14:00,
2013-02-04 15:16:00,74.0,65.0,29.79,South,180,8.0,9.0,74,0.00,,,0.00,TxWx,2013-02-04 21:16:00,
2013-02-04 15:17:00,74.0,65.0,29.79,SSW,202,4.0,5.0,75,0.00,,,0.00,TxWx,2013-02-04 21:17:00,
2013-02-04 15:21:00,74.0,66.0,29.79,SSE,157,14.0,16.0,75,0.00,,,0.00,TxWx,2013-02-04 21:21:00,
2013-02-04 15:22:00,74.0,66.0,29.79,SSE,157,10.0,10.0,75,0.00,,,0.00,TxWx,2013-02-04 21:22:00,
2013-02-04 15:27:00,74.0,66.0,29.79,SW,225,8.0,11.0,75,0.00,,,0.00,TxWx,2013-02-04 21:27:00,
2013-02-04 15:28:00,74.0,66.0,29.79,SSE,157,6.0,7.0,75,0.00,,,0.00,TxWx,2013-02-04 21:28:00,
2013-02-04 15:33:00,74.0,66.0,29.79,South,180,11.0,13.0,76,0.00,,,0.00,TxWx,2013-02-04 21:33:00,
2013-02-04 15:34:00,74.0,66.0,29.79,South,180,14.0,14.0,77,0.00,,,0.00,TxWx,2013-02-04 21:34:00,
2013-02-04 15:35:00,74.0,66.0,29.79,SSW,202,10.0,10.0,77,0.00,,,0.00,TxWx,2013-02-04 21:35:00,
2013-02-04 15:40:00,73.0,65.0,29.79,SSE,157,19.0,19.0,77,0.00,,,0.00,TxWx,2013-02-04 21:40:00,
2013-02-04 15:41:00,73.0,65.0,29.79,South,180,14.0,14.0,77,0.00,,,0.00,TxWx,2013-02-04 21:41:00,
2013-02-04 15:46:00,73.0,66.0,29.79,South,180,16.0,18.0,78,0.00,,,0.00,TxWx,2013-02-04 21:46:00,
2013-02-04 15:47:00,73.0,66.0,29.79,SSE,157,17.0,18.0,78,0.00,,,0.00,TxWx,2013-02-04 21:47:00,
2013-02-04 15:51:00,73.0,66.0,29.79,SSE,157,12.0,14.0,78,0.00,,,0.00,TxWx,2013-02-04 21:51:00,
2013-02-04 15:52:00,73.0,66.0,29.79,SSW,202,8.0,8.0,79,0.00,,,0.00,TxWx,2013-02-04 21:52:00,
2013-02-04 15:53:00,73.0,66.0,29.79,South,180,8.0,11.0,79,0.00,,,0.00,TxWx,2013-02-04 21:53:00,
2013-02-04 15:57:00,73.0,66.0,29.79,South,180,10.0,10.0,78,0.00,,,0.00,TxWx,2013-02-04 21:57:00,
2013-02-04 15:58:00,73.0,66.0,29.79,South,180,8.0,10.0,78,0.00,,,0.00,TxWx,2013-02-04 21:58:00,
2013-02-04 16:00:00,74.0,67.0,29.79,SSE,157,8.0,8.0,78,0.00,,,0.00,TxWx,2013-02-04 22:00:00,
2013-02-04 16:03:00,73.0,65.0,29.78,South,180,9.0,9.0,77,0.00,,,0.00,TxWx,2013-02-04 22:03:00,
2013-02-04 16:04:00,73.0,65.0,29.79,South,180,13.0,13.0,77,0.00,,,0.00,TxWx,2013-02-04 22:04:00,
2013-02-04 16:06:00,73.0,66.0,29.79,SSE,157,13.0,14.0,78,0.00,,,0.00,TxWx,2013-02-04 22:06:00,
2013-02-04 16:08:00,73.0,66.0,29.78,SE,135,7.0,9.0,78,0.00,,,0.00,TxWx,2013-02-04 22:08:00,
2013-02-04 16:10:00,73.0,66.0,29.78,SSE,157,13.0,13.0,78,0.00,,,0.00,TxWx,2013-02-04 22:10:00,
2013-02-04 16:12:00,73.0,66.0,29.78,SSE,157,14.0,14.0,78,0.00,,,0.00,TxWx,2013-02-04 22:12:00,
2013-02-04 16:14:00,73.0,66.0,29.78,SE,135,7.0,12.0,79,0.00,,,0.00,TxWx,2013-02-04 22:14:00,
2013-02-04 16:17:00,73.0,66.0,29.78,SSE,157,12.0,12.0,79,0.00,,,0.00,TxWx,2013-02-04 22:17:00,
2013-02-04 16:18:00,73.0,66.0,29.78,South,180,5.0,6.0,79,0.00,,,0.00,TxWx,2013-02-04 22:18:00,
2013-02-04 16:19:00,73.0,66.0,29.78,South,180,15.0,15.0,79,0.00,,,0.00,TxWx,2013-02-04 22:19:00,
2013-02-04 16:22:00,73.0,66.0,29.78,South,180,18.0,21.0,79,0.00,,,0.00,TxWx,2013-02-04 22:22:00,
2013-02-04 16:23:00,73.0,66.0,29.78,South,180,11.0,13.0,79,0.00,,,0.00,TxWx,2013-02-04 22:23:00,
2013-02-04 16:25:00,73.0,66.0,29.78,SSW,202,8.0,9.0,79,0.00,,,0.00,TxWx,2013-02-04 22:25:00,
2013-02-04 16:27:00,73.0,66.0,29.78,SSE,157,11.0,11.0,79,0.00,,,0.00,TxWx,2013-02-04 22:27:00,
2013-02-04 16:28:00,73.0,66.0,29.78,SSW,202,13.0,18.0,79,0.00,,,0.00,TxWx,2013-02-04 22:28:00,
2013-02-04 16:30:00,73.0,66.0,29.78,SSE,157,13.0,13.0,79,0.00,,,0.00,TxWx,2013-02-04 22:30:00,
2013-02-04 16:32:00,73.0,66.0,29.78,SSW,202,11.0,15.0,79,0.00,,,0.00,TxWx,2013-02-04 22:32:00,
2013-02-04 16:35:00,73.0,66.0,29.78,South,180,16.0,17.0,79,0.00,,,0.00,TxWx,2013-02-04 22:35:00,
2013-02-04 16:36:00,72.0,65.0,29.78,SSE,157,16.0,19.0,79,0.00,,,0.00,TxWx,2013-02-04 22:36:00,
2013-02-04 16:38:00,73.0,66.0,29.78,SSW,202,11.0,13.0,80,0.00,,,0.00,TxWx,2013-02-04 22:38:00,
2013-02-04 16:40:00,72.0,65.0,29.78,South,180,11.0,13.0,80,0.00,,,0.00,TxWx,2013-02-04 22:40:00,
2013-02-04 16:41:00,72.0,65.0,29.78,SSE,157,13.0,13.0,80,0.00,,,0.00,TxWx,2013-02-04 22:41:00,
2013-02-04 16:42:00,72.0,65.0,29.78,South,180,12.0,14.0,80,0.00,,,0.00,TxWx,2013-02-04 22:42:00,
2013-02-04 16:43:00,72.0,65.0,29.78,SSW,202,13.0,14.0,80,0.00,,,0.00,TxWx,2013-02-04 22:43:00,
2013-02-04 16:47:00,72.0,66.0,29.78,SSE,157,20.0,20.0,81,0.00,,,0.00,TxWx,2013-02-04 22:47:00,
2013-02-04 16:48:00,72.0,66.0,29.78,SSE,157,11.0,11.0,81,0.00,,,0.00,TxWx,2013-02-04 22:48:00,
2013-02-04 16:53:00,72.0,66.0,29.78,SSE,157,14.0,16.0,81,0.00,,,0.00,TxWx,2013-02-04 22:53:00,
2013-02-04 16:54:00,72.0,66.0,29.78,South,180,18.0,18.0,81,0.00,,,0.00,TxWx,2013-02-04 22:54:00,
2013-02-04 16:55:00,72.0,66.0,29.78,SSE,157,13.0,13.0,82,0.00,,,0.00,TxWx,2013-02-04 22:55:00,
2013-02-04 16:58:00,72.0,66.0,29.78,SSE,157,14.0,15.0,82,0.00,,,0.00,TxWx,2013-02-04 22:58:00,
2013-02-04 16:59:00,72.0,66.0,29.78,South,180,22.0,22.0,82,0.00,,,0.00,TxWx,2013-02-04 22:59:00,
2013-02-04 17:00:00,72.0,66.0,29.78,South,180,12.0,12.0,82,0.00,,,0.00,TxWx,2013-02-04 23:00:00,
2013-02-04 17:03:00,72.0,66.0,29.78,SE,135,11.0,11.0,83,0.00,,,0.00,TxWx,2013-02-04 23:03:00,
2013-02-04 17:05:00,72.0,67.0,29.78,SSW,202,13.0,14.0,83,0.00,,,0.00,TxWx,2013-02-04 23:05:00,
2013-02-04 17:08:00,71.0,66.0,29.78,South,180,13.0,14.0,83,0.00,,,0.00,TxWx,2013-02-04 23:08:00,
2013-02-04 17:11:00,71.0,66.0,29.78,SSE,157,14.0,14.0,83,0.00,,,0.00,TxWx,2013-02-04 23:11:00,
2013-02-04 17:12:00,72.0,67.0,29.78,SSE,157,8.0,8.0,84,0.00,,,0.00,TxWx,2013-02-04 23:12:00,
2013-02-04 17:16:00,71.0,66.0,29.78,South,180,8.0,10.0,84,0.00,,,0.00,TxWx,2013-02-04 23:16:00,
2013-02-04 17:17:00,71.0,66.0,29.78,SSE,157,13.0,13.0,84,0.00,,,0.00,TxWx,2013-02-04 23:17:00,
2013-02-04 17:18:00,71.0,66.0,29.78,SSW,202,9.0,9.0,84,0.00,,,0.00,TxWx,2013-02-04 23:18:00,
2013-02-04 17:21:00,71.0,66.0,29.78,SSE,157,11.0,11.0,84,0.00,,,0.00,TxWx,2013-02-04 23:21:00,
2013-02-04 17:22:00,71.0,66.0,29.78,South,180,8.0,9.0,84,0.00,,,0.00,TxWx,2013-02-04 23:22:00,
2013-02-04 17:23:00,71.0,66.0,29.78,SSE,157,6.0,7.0,84,0.00,,,0.00,TxWx,2013-02-04 23:23:00,
2013-02-04 17:27:00,71.0,66.0,29.78,South,180,14.0,14.0,85,0.00,,,0.00,TxWx,2013-02-04 23:27:00,
2013-02-04 17:28:00,71.0,66.0,29.78,South,180,18.0,18.0,85,0.00,,,0.00,TxWx,2013-02-04 23:28:00,
2013-02-04 17:31:00,71.0,66.0,29.78,SE,135,8.0,9.0,85,0.00,,,0.00,TxWx,2013-02-04 23:31:00,
2013-02-04 17:33:00,71.0,66.0,29.78,WNW,292,5.0,8.0,86,0.00,,,0.00,TxWx,2013-02-04 23:33:00,
2013-02-04 17:35:00,71.0,66.0,29.78,SSE,157,6.0,7.0,86,0.00,,,0.00,TxWx,2013-02-04 23:35:00,
2013-02-04 17:37:00,71.0,66.0,29.78,South,180,16.0,16.0,86,0.00,,,0.00,TxWx,2013-02-04 23:37:00,
2013-02-04 17:38:00,71.0,66.0,29.78,SSE,157,11.0,11.0,86,0.00,,,0.00,TxWx,2013-02-04 23:38:00,
2013-02-04 17:40:00,71.0,66.0,29.78,South,180,11.0,13.0,86,0.00,,,0.00,TxWx,2013-02-04 23:40:00,
2013-02-04 17:41:00,71.0,67.0,29.77,South,180,10.0,10.0,86,0.00,,,0.00,TxWx,2013-02-04 23:41:00,
2013-02-04 17:43:00,71.0,67.0,29.77,South,180,12.0,12.0,86,0.00,,,0.00,TxWx,2013-02-04 23:43:00,
2013-02-04 17:45:00,71.0,67.0,29.77,SSE,157,11.0,11.0,86,0.00,,,0.00,TxWx,2013-02-04 23:45:00,
2013-02-04 17:46:00,70.0,66.0,29.78,SSE,157,10.0,12.0,86,0.00,,,0.00,TxWx,2013-02-04 23:46:00,
2013-02-04 17:50:00,70.0,66.0,29.78,SSE,157,8.0,9.0,87,0.00,,,0.00,TxWx,2013-02-04 23:50:00,
2013-02-04 17:51:00,70.0,66.0,29.78,South,180,12.0,13.0,87,0.00,,,0.00,TxWx,2013-02-04 23:51:00,
2013-02-04 17:53:00,70.0,66.0,29.78,South,180,8.0,8.0,87,0.00,,,0.00,TxWx,2013-02-04 23:53:00,
2013-02-04 17:56:00,70.0,66.0,29.78,South,180,7.0,7.0,87,0.00,,,0.00,TxWx,2013-02-04 23:56:00,
2013-02-04 17:58:00,70.0,66.0,29.78,SSE,157,10.0,10.0,87,0.00,,,0.00,TxWx,2013-02-04 23:58:00,
2013-02-04 18:01:00,70.0,66.0,29.78,SSE,157,12.0,13.0,88,0.00,,,0.00,TxWx,2013-02-05 00:01:00,
2013-02-04 18:03:00,70.0,66.0,29.78,SSE,157,7.0,7.0,88,0.00,,,0.00,TxWx,2013-02-05 00:03:00,
2013-02-04 18:04:00,70.0,66.0,29.78,SSW,202,13.0,13.0,88,0.00,,,0.00,TxWx,2013-02-05 00:04:00,
2013-02-04 18:06:00,70.0,66.0,29.79,SSE,157,10.0,13.0,88,0.00,,,0.00,TxWx,2013-02-05 00:06:00,
2013-02-04 18:08:00,70.0,66.0,29.79,South,180,14.0,14.0,89,0.00,,,0.00,TxWx,2013-02-05 00:08:00,
2013-02-04 18:09:00,69.0,65.0,29.79,SE,135,8.0,8.0,89,0.00,,,0.00,TxWx,2013-02-05 00:09:00,
2013-02-04 18:11:00,69.0,66.0,29.79,SSE,157,10.0,11.0,89,0.00,,,0.00,TxWx,2013-02-05 00:11:00,
2013-02-04 18:14:00,69.0,66.0,29.78,South,180,8.0,8.0,89,0.00,,,0.00,TxWx,2013-02-05 00:14:00,
2013-02-04 18:15:00,69.0,66.0,29.78,SSW,202,4.0,5.0,89,0.00,,,0.00,TxWx,2013-02-05 00:15:00,
2013-02-04 18:17:00,69.0,66.0,29.78,South,180,10.0,10.0,90,0.00,,,0.00,TxWx,2013-02-05 00:17:00,
2013-02-04 18:18:00,69.0,66.0,29.79,SSE,157,11.0,11.0,90,0.00,,,0.00,TxWx,2013-02-05 00:18:00,
2013-02-04 18:20:00,69.0,66.0,29.79,SSE,157,14.0,14.0,90,0.00,,,0.00,TxWx,2013-02-05 00:20:00,
2013-02-04 18:23:00,69.0,66.0,29.79,SSE,157,6.0,6.0,90,0.00,,,0.00,TxWx,2013-02-05 00:23:00,
2013-02-04 18:25:00,69.0,66.0,29.79,SSE,157,6.0,7.0,90,0.00,,,0.00,TxWx,2013-02-05 00:25:00,
2013-02-04 18:26:00,69.0,66.0,29.79,South,180,10.0,10.0,90,0.00,,,0.00,TxWx,2013-02-05 00:26:00,
2013-02-04 18:28:00,69.0,66.0,29.79,SSE,157,11.0,13.0,91,0.00,,,0.00,TxWx,2013-02-05 00:28:00,
2013-02-04 18:30:00,69.0,66.0,29.79,SSE,157,9.0,9.0,91,0.00,,,0.00,TxWx,2013-02-05 00:30:00,
2013-02-04 18:31:00,69.0,66.0,29.79,SSE,157,9.0,9.0,91,0.00,,,0.00,TxWx,2013-02-05 00:31:00,
2013-02-04 18:34:00,69.0,66.0,29.79,SSE,157,10.0,11.0,91,0.00,,,0.00,TxWx,2013-02-05 00:34:00,
2013-02-04 18:36:00,69.0,66.0,29.80,South,180,10.0,10.0,91,0.00,,,0.00,TxWx,2013-02-05 00:36:00,
2013-02-04 18:38:00,69.0,66.0,29.80,South,180,8.0,8.0,91,0.00,,,0.00,TxWx,2013-02-05 00:38:00,
2013-02-04 18:42:00,69.0,66.0,29.80,South,180,7.0,7.0,91,0.00,,,0.00,TxWx,2013-02-05 00:42:00,
2013-02-04 18:44:00,69.0,66.0,29.80,SSE,157,9.0,10.0,91,0.00,,,0.00,TxWx,2013-02-05 00:44:00,
2013-02-04 18:45:00,69.0,66.0,29.80,South,180,8.0,8.0,91,0.00,,,0.00,TxWx,2013-02-05 00:45:00,
2013-02-04 18:47:00,69.0,66.0,29.80,SSW,202,9.0,9.0,92,0.00,,,0.00,TxWx,2013-02-05 00:47:00,
2013-02-04 18:48:00,69.0,66.0,29.80,South,180,5.0,6.0,92,0.00,,,0.00,TxWx,2013-02-05 00:48:00,
2013-02-04 18:50:00,69.0,66.0,29.80,SSE,157,6.0,9.0,92,0.00,,,0.00,TxWx,2013-02-05 00:50:00,
2013-02-04 18:52:00,69.0,66.0,29.80,SSE,157,10.0,10.0,92,0.00,,,0.00,TxWx,2013-02-05 00:52:00,
2013-02-04 18:53:00,69.0,66.0,29.80,SSE,157,14.0,14.0,92,0.00,,,0.00,TxWx,2013-02-05 00:53:00,
2013-02-04 18:54:00,69.0,67.0,29.80,SSW,202,12.0,12.0,92,0.00,,,0.00,TxWx,2013-02-05 00:54:00,
2013-02-04 18:57:00,69.0,67.0,29.80,SSW,202,9.0,11.0,92,0.00,,,0.00,TxWx,2013-02-05 00:57:00,
2013-02-04 18:59:00,69.0,67.0,29.80,South,180,7.0,7.0,92,0.00,,,0.00,TxWx,2013-02-05 00:59:00,
2013-02-04 19:02:00,69.0,67.0,29.80,South,180,10.0,10.0,92,0.00,,,0.00,TxWx,2013-02-05 01:02:00,
2013-02-04 19:03:00,69.0,67.0,29.80,South,180,5.0,6.0,93,0.00,,,0.00,TxWx,2013-02-05 01:03:00,
2013-02-04 19:06:00,69.0,67.0,29.80,South,180,10.0,11.0,93,0.00,,,0.00,TxWx,2013-02-05 01:06:00,
2013-02-04 19:07:00,69.0,67.0,29.80,SSE,157,12.0,12.0,93,0.00,,,0.00,TxWx,2013-02-05 01:07:00,
2013-02-04 19:08:00,69.0,67.0,29.81,South,180,14.0,15.0,93,0.00,,,0.00,TxWx,2013-02-05 01:08:00,
2013-02-04 19:11:00,69.0,67.0,29.81,South,180,9.0,9.0,93,0.00,,,0.00,TxWx,2013-02-05 01:11:00,
2013-02-04 19:14:00,69.0,67.0,29.81,SSE,157,6.0,6.0,93,0.00,,,0.00,TxWx,2013-02-05 01:14:00,
2013-02-04 19:16:00,69.0,67.0,29.81,SSW,202,9.0,10.0,93,0.00,,,0.00,TxWx,2013-02-05 01:16:00,
2013-02-04 19:19:00,69.0,67.0,29.81,SSW,202,12.0,13.0,93,0.00,,,0.00,TxWx,2013-02-05 01:19:00,
2013-02-04 19:20:00,69.0,67.0,29.81,SSE,157,6.0,9.0,93,0.00,,,0.00,TxWx,2013-02-05 01:20:00,
2013-02-04 19:21:00,69.0,67.0,29.81,SSW,202,10.0,11.0,93,0.00,,,0.00,TxWx,2013-02-05 01:21:00,
2013-02-04 19:24:00,69.0,67.0,29.81,SSE,157,4.0,5.0,93,0.00,,,0.00,TxWx,2013-02-05 01:24:00,
2013-02-04 19:26:00,69.0,67.0,29.81,South,180,11.0,11.0,93,0.00,,,0.00,TxWx,2013-02-05 01:26:00,
2013-02-04 19:27:00,69.0,67.0,29.81,SSE,157,7.0,7.0,93,0.00,,,0.00,TxWx,2013-02-05 01:27:00,
2013-02-04 19:29:00,69.0,67.0,29.81,SSE,157,11.0,13.0,92,0.00,,,0.00,TxWx,2013-02-05 01:29:00,
2013-02-04 19:30:00,69.0,67.0,29.81,South,180,13.0,15.0,92,0.00,,,0.00,TxWx,2013-02-05 01:30:00,
2013-02-04 19:32:00,69.0,67.0,29.81,SSE,157,10.0,12.0,92,0.00,,,0.00,TxWx,2013-02-05 01:32:00,
2013-02-04 19:33:00,69.0,67.0,29.81,SSE,157,5.0,5.0,92,0.00,,,0.00,TxWx,2013-02-05 01:33:00,
2013-02-04 19:35:00,69.0,67.0,29.81,SSW,202,9.0,12.0,92,0.00,,,0.00,TxWx,2013-02-05 01:35:00,
2013-02-04 19:37:00,69.0,67.0,29.82,SSE,157,8.0,10.0,92,0.00,,,0.00,TxWx,2013-02-05 01:37:00,
2013-02-04 19:39:00,69.0,67.0,29.82,SSW,202,10.0,11.0,92,0.00,,,0.00,TxWx,2013-02-05 01:39:00,
2013-02-04 19:40:00,69.0,66.0,29.82,SSE,157,8.0,8.0,92,0.00,,,0.00,TxWx,2013-02-05 01:40:00,
2013-02-04 19:43:00,69.0,66.0,29.82,South,180,12.0,12.0,92,0.00,,,0.00,TxWx,2013-02-05 01:43:00,
2013-02-04 19:45:00,69.0,66.0,29.82,SSW,202,13.0,13.0,92,0.00,,,0.00,TxWx,2013-02-05 01:45:00,
2013-02-04 19:49:00,69.0,66.0,29.82,SSW,202,11.0,11.0,92,0.00,,,0.00,TxWx,2013-02-05 01:49:00,
2013-02-04 19:50:00,68.0,65.0,29.82,SSE,157,8.0,8.0,92,0.00,,,0.00,TxWx,2013-02-05 01:50:00,
2013-02-04 19:51:00,68.0,65.0,29.82,South,180,11.0,12.0,92,0.00,,,0.00,TxWx,2013-02-05 01:51:00,
2013-02-04 19:53:00,68.0,65.0,29.82,South,180,12.0,12.0,92,0.00,,,0.00,TxWx,2013-02-05 01:53:00,
2013-02-04 19:54:00,68.0,65.0,29.82,SSW,202,12.0,12.0,92,0.00,,,0.00,TxWx,2013-02-05 01:54:00,
2013-02-04 19:55:00,68.0,65.0,29.82,SSW,202,8.0,8.0,92,0.00,,,0.00,TxWx,2013-02-05 01:55:00,
2013-02-04 19:57:00,68.0,65.0,29.82,South,180,8.0,9.0,92,0.00,,,0.00,TxWx,2013-02-05 01:57:00,
2013-02-04 19:59:00,68.0,65.0,29.82,SSE,157,7.0,10.0,92,0.00,,,0.00,TxWx,2013-02-05 01:59:00,
2013-02-04 20:00:00,68.0,65.0,29.82,SSW,202,11.0,11.0,92,0.00,,,0.00,TxWx,2013-02-05 02:00:00,
2013-02-04 20:03:00,68.0,65.0,29.83,SW,225,7.0,7.0,92,0.00,,,0.00,TxWx,2013-02-05 02:03:00,
2013-02-04 20:05:00,68.0,65.0,29.83,SSW,202,11.0,12.0,92,0.00,,,0.00,TxWx,2013-02-05 02:05:00,
2013-02-04 20:08:00,68.0,66.0,29.82,South,180,7.0,11.0,92,0.00,,,0.00,TxWx,2013-02-05 02:08:00,
2013-02-04 20:09:00,68.0,66.0,29.83,SSW,202,10.0,10.0,92,0.00,,,0.00,TxWx,2013-02-05 02:09:00,
2013-02-04 20:10:00,68.0,66.0,29.83,South,180,8.0,8.0,92,0.00,,,0.00,TxWx,2013-02-05 02:10:00,
2013-02-04 20:11:00,68.0,66.0,29.82,South,180,12.0,13.0,92,0.00,,,0.00,TxWx,2013-02-05 02:11:00,
2013-02-04 20:14:00,68.0,66.0,29.83,South,180,7.0,7.0,92,0.00,,,0.00,TxWx,2013-02-05 02:14:00,
2013-02-04 20:15:00,68.0,66.0,29.83,SSE,157,6.0,6.0,92,0.00,,,0.00,TxWx,2013-02-05 02:15:00,
2013-02-04 20:16:00,68.0,66.0,29.83,SSE,157,10.0,10.0,92,0.00,,,0.00,TxWx,2013-02-05 02:16:00,
2013-02-04 20:18:00,68.0,66.0,29.83,South,180,13.0,13.0,92,0.00,,,0.00,TxWx,2013-02-05 02:18:00,
2013-02-04 20:20:00,68.0,66.0,29.83,South,180,6.0,6.0,92,0.00,,,0.00,TxWx,2013-02-05 02:20:00,
2013-02-04 20:21:00,68.0,66.0,29.83,SSW,202,5.0,5.0,92,0.00,,,0.00,TxWx,2013-02-05 02:21:00,
2013-02-04 20:22:00,68.0,66.0,29.83,SSW,202,11.0,11.0,92,0.00,,,0.00,TxWx,2013-02-05 02:22:00,
2013-02-04 20:25:00,68.0,66.0,29.83,South,180,11.0,12.0,93,0.00,,,0.00,TxWx,2013-02-05 02:25:00,
2013-02-04 20:26:00,68.0,66.0,29.83,SSW,202,6.0,6.0,93,0.00,,,0.00,TxWx,2013-02-05 02:26:00,
2013-02-04 20:27:00,68.0,66.0,29.83,South,180,13.0,14.0,93,0.00,,,0.00,TxWx,2013-02-05 02:27:00,
2013-02-04 20:30:00,68.0,66.0,29.83,SSW,202,6.0,6.0,93,0.00,,,0.00,TxWx,2013-02-05 02:30:00,
2013-02-04 20:31:00,68.0,66.0,29.83,SSW,202,6.0,6.0,93,0.00,,,0.00,TxWx,2013-02-05 02:31:00,
2013-02-04 20:32:00,68.0,66.0,29.83,SSW,202,13.0,13.0,93,0.00,,,0.00,TxWx,2013-02-05 02:32:00,
2013-02-04 20:36:00,68.0,66.0,29.82,SSE,157,9.0,10.0,93,0.00,,,0.00,TxWx,2013-02-05 02:36:00,
2013-02-04 20:37:00,68.0,66.0,29.83,South,180,8.0,8.0,93,0.00,,,0.00,TxWx,2013-02-05 02:37:00,
2013-02-04 20:42:00,68.0,66.0,29.82,SSW,202,6.0,8.0,93,0.00,,,0.00,TxWx,2013-02-05 02:42:00,
2013-02-04 20:43:00,68.0,66.0,29.83,SSE,157,12.0,12.0,93,0.00,,,0.00,TxWx,2013-02-05 02:43:00,
2013-02-04 20:45:00,68.0,66.0,29.83,SW,225,11.0,11.0,93,0.00,,,0.00,TxWx,2013-02-05 02:45:00,
2013-02-04 20:47:00,68.0,66.0,29.83,SSW,202,11.0,12.0,93,0.00,,,0.00,TxWx,2013-02-05 02:47:00,
2013-02-04 20:52:00,68.0,66.0,29.83,South,180,8.0,8.0,93,0.00,,,0.00,TxWx,2013-02-05 02:52:00,
2013-02-04 20:54:00,68.0,66.0,29.83,SW,225,7.0,7.0,93,0.00,,,0.00,TxWx,2013-02-05 02:54:00,
2013-02-04 20:57:00,68.0,66.0,29.83,SSW,202,8.0,8.0,93,0.00,,,0.00,TxWx,2013-02-05 02:57:00,
2013-02-04 20:59:00,68.0,66.0,29.83,SE,135,6.0,8.0,93,0.00,,,0.00,TxWx,2013-02-05 02:59:00,
2013-02-04 21:01:00,68.0,66.0,29.83,SE,135,6.0,7.0,93,0.00,,,0.00,TxWx,2013-02-05 03:01:00,
2013-02-04 21:02:00,68.0,66.0,29.83,South,180,6.0,7.0,93,0.00,,,0.00,TxWx,2013-02-05 03:02:00,
2013-02-04 21:05:00,68.0,66.0,29.83,South,180,6.0,9.0,93,0.00,,,0.00,TxWx,2013-02-05 03:05:00,
2013-02-04 21:07:00,68.0,66.0,29.83,South,180,8.0,10.0,93,0.00,,,0.00,TxWx,2013-02-05 03:07:00,
2013-02-04 21:08:00,68.0,66.0,29.83,South,180,10.0,10.0,93,0.00,,,0.00,TxWx,2013-02-05 03:08:00,
2013-02-04 21:11:00,68.0,66.0,29.83,SSE,157,9.0,9.0,93,0.00,,,0.00,TxWx,2013-02-05 03:11:00,
2013-02-04 21:13:00,68.0,66.0,29.83,SSE,157,8.0,9.0,93,0.00,,,0.00,TxWx,2013-02-05 03:13:00,
2013-02-04 21:15:00,68.0,66.0,29.83,SSE,157,11.0,13.0,93,0.00,,,0.00,TxWx,2013-02-05 03:15:00,
2013-02-04 21:18:00,68.0,66.0,29.83,SE,135,10.0,10.0,93,0.00,,,0.00,TxWx,2013-02-05 03:18:00,
2013-02-04 21:21:00,68.0,66.0,29.83,SSE,157,8.0,8.0,93,0.00,,,0.00,TxWx,2013-02-05 03:21:00,
2013-02-04 21:23:00,68.0,66.0,29.83,SSE,157,7.0,9.0,93,0.00,,,0.00,TxWx,2013-02-05 03:23:00,
2013-02-04 21:25:00,68.0,66.0,29.83,SSW,202,10.0,11.0,93,0.00,,,0.00,TxWx,2013-02-05 03:25:00,
2013-02-04 21:27:00,68.0,66.0,29.83,SSE,157,11.0,11.0,93,0.00,,,0.00,TxWx,2013-02-05 03:27:00,
2013-02-04 21:28:00,68.0,66.0,29.83,SSE,157,13.0,13.0,93,0.00,,,0.00,TxWx,2013-02-05 03:28:00,
2013-02-04 21:29:00,68.0,66.0,29.82,SSE,157,11.0,12.0,93,0.00,,,0.00,TxWx,2013-02-05 03:29:00,
2013-02-04 21:32:00,68.0,66.0,29.82,SSE,157,6.0,7.0,93,0.00,,,0.00,TxWx,2013-02-05 03:32:00,
2013-02-04 21:34:00,68.0,66.0,29.83,SSW,202,10.0,11.0,93,0.00,,,0.00,TxWx,2013-02-05 03:34:00,
2013-02-04 21:36:00,68.0,66.0,29.83,SE,135,11.0,11.0,93,0.00,,,0.00,TxWx,2013-02-05 03:36:00,
2013-02-04 21:37:00,68.0,66.0,29.83,SSW,202,11.0,13.0,93,0.00,,,0.00,TxWx,2013-02-05 03:37:00,
2013-02-04 21:39:00,68.0,66.0,29.83,South,180,7.0,8.0,94,0.00,,,0.00,TxWx,2013-02-05 03:39:00,
2013-02-04 21:43:00,68.0,66.0,29.83,SW,225,10.0,11.0,94,0.00,,,0.00,TxWx,2013-02-05 03:43:00,
2013-02-04 21:44:00,68.0,66.0,29.83,SSW,202,8.0,8.0,94,0.00,,,0.00,TxWx,2013-02-05 03:44:00,
2013-02-04 21:49:00,68.0,66.0,29.83,SW,225,7.0,7.0,94,0.00,,,0.00,TxWx,2013-02-05 03:49:00,
2013-02-04 21:50:00,68.0,66.0,29.83,South,180,8.0,8.0,94,0.00,,,0.00,TxWx,2013-02-05 03:50:00,
2013-02-04 21:54:00,68.0,66.0,29.84,SW,225,10.0,10.0,94,0.00,,,0.00,TxWx,2013-02-05 03:54:00,
2013-02-04 21:55:00,68.0,66.0,29.83,SSW,202,15.0,16.0,94,0.00,,,0.00,TxWx,2013-02-05 03:55:00,
2013-02-04 21:59:00,67.0,66.0,29.85,SSW,202,8.0,8.0,95,0.00,,,0.00,TxWx,2013-02-05 03:59:00,
2013-02-04 22:00:00,67.0,66.0,29.85,SSW,202,8.0,9.0,95,0.00,,,0.00,TxWx,2013-02-05 04:00:00,
2013-02-04 22:01:00,67.0,65.0,29.83,SSE,157,7.0,7.0,94,0.00,,,0.00,TxWx,2013-02-05 04:01:00,
2013-02-04 22:02:00,67.0,65.0,29.83,South,180,6.0,8.0,94,0.00,,,0.00,TxWx,2013-02-05 04:02:00,
2013-02-04 22:03:00,67.0,66.0,29.85,South,180,8.0,8.0,95,0.00,,,0.00,TxWx,2013-02-05 04:03:00,
2013-02-04 22:04:00,67.0,66.0,29.85,SSW,202,8.0,8.0,95,0.00,,,0.00,TxWx,2013-02-05 04:04:00,
2013-02-04 22:05:00,67.0,66.0,29.85,SSW,202,6.0,6.0,95,0.00,,,0.00,TxWx,2013-02-05 04:05:00,
2013-02-04 22:06:00,67.0,65.0,29.83,South,180,6.0,8.0,94,0.00,,,0.00,TxWx,2013-02-05 04:06:00,
2013-02-04 22:07:00,67.0,65.0,29.83,South,180,6.0,6.0,94,0.00,,,0.00,TxWx,2013-02-05 04:07:00,
2013-02-04 22:08:00,67.0,65.0,29.84,South,180,10.0,11.0,94,0.00,,,0.00,TxWx,2013-02-05 04:08:00,
2013-02-04 22:09:00,67.0,66.0,29.85,SW,225,6.0,6.0,95,0.00,,,0.00,TxWx,2013-02-05 04:09:00,
2013-02-04 22:10:00,67.0,65.0,29.83,South,180,10.0,10.0,94,0.00,,,0.00,TxWx,2013-02-05 04:10:00,
2013-02-04 22:11:00,67.0,65.0,29.84,SSW,202,13.0,13.0,94,0.00,,,0.00,TxWx,2013-02-05 04:11:00,
2013-02-04 22:12:00,67.0,65.0,29.84,SSW,202,7.0,7.0,94,0.00,,,0.00,TxWx,2013-02-05 04:12:00,
2013-02-04 22:13:00,67.0,66.0,29.85,SSW,202,14.0,14.0,95,0.00,,,0.00,TxWx,2013-02-05 04:13:00,
2013-02-04 22:14:00,67.0,66.0,29.85,SSW,202,10.0,10.0,95,0.00,,,0.00,TxWx,2013-02-05 04:14:00,
2013-02-04 22:15:00,67.0,65.0,29.84,South,180,8.0,8.0,94,0.00,,,0.00,TxWx,2013-02-05 04:15:00,
2013-02-04 22:16:00,67.0,65.0,29.84,SW,225,10.0,10.0,94,0.00,,,0.00,TxWx,2013-02-05 04:16:00,
2013-02-04 22:17:00,67.0,66.0,29.85,South,180,14.0,15.0,95,0.00,,,0.00,TxWx,2013-02-05 04:17:00,
2013-02-04 22:18:00,67.0,65.0,29.84,SSW,202,8.0,8.0,94,0.00,,,0.00,TxWx,2013-02-05 04:18:00,
2013-02-04 22:19:00,67.0,66.0,29.85,WSW,247,8.0,8.0,95,0.00,,,0.00,TxWx,2013-02-05 04:19:00,
2013-02-04 22:20:00,67.0,66.0,29.85,SSW,202,10.0,10.0,95,0.00,,,0.00,TxWx,2013-02-05 04:20:00,
2013-02-04 22:21:00,67.0,65.0,29.84,SSW,202,7.0,7.0,95,0.00,,,0.00,TxWx,2013-02-05 04:21:00,
2013-02-04 22:23:00,67.0,65.0,29.84,South,180,5.0,5.0,95,0.00,,,0.00,TxWx,2013-02-05 04:23:00,
2013-02-04 22:24:00,67.0,66.0,29.85,SW,225,5.0,5.0,96,0.00,,,0.00,TxWx,2013-02-05 04:24:00,
2013-02-04 22:25:00,67.0,66.0,29.85,SSW,202,9.0,10.0,96,0.00,,,0.00,TxWx,2013-02-05 04:25:00,
2013-02-04 22:26:00,67.0,65.0,29.84,SW,225,8.0,10.0,95,0.00,,,0.00,TxWx,2013-02-05 04:26:00,
2013-02-04 22:27:00,67.0,65.0,29.85,SSW,202,9.0,9.0,95,0.00,,,0.00,TxWx,2013-02-05 04:27:00,
2013-02-04 22:28:00,67.0,66.0,29.85,SW,225,10.0,10.0,96,0.00,,,0.00,TxWx,2013-02-05 04:28:00,
2013-02-04 22:29:00,67.0,65.0,29.84,SSW,202,13.0,13.0,95,0.00,,,0.00,TxWx,2013-02-05 04:29:00,
2013-02-04 22:31:00,67.0,65.0,29.84,SSW,202,11.0,13.0,95,0.00,,,0.00,TxWx,2013-02-05 04:31:00,
2013-02-04 22:32:00,67.0,65.0,29.84,WSW,247,6.0,6.0,95,0.00,,,0.00,TxWx,2013-02-05 04:32:00,
2013-02-04 22:33:00,67.0,66.0,29.85,SW,225,6.0,6.0,96,0.00,,,0.00,TxWx,2013-02-05 04:33:00,
2013-02-04 22:34:00,67.0,65.0,29.84,SW,225,6.0,6.0,95,0.00,,,0.00,TxWx,2013-02-05 04:34:00,
2013-02-04 22:35:00,67.0,66.0,29.85,WSW,247,11.0,11.0,96,0.00,,,0.00,TxWx,2013-02-05 04:35:00,
2013-02-04 22:36:00,67.0,66.0,29.85,SSW,202,9.0,10.0,96,0.00,,,0.00,TxWx,2013-02-05 04:36:00,
2013-02-04 22:37:00,67.0,65.0,29.84,SSW,202,8.0,8.0,95,0.00,,,0.00,TxWx,2013-02-05 04:37:00,
2013-02-04 22:38:00,67.0,65.0,29.84,SW,225,8.0,8.0,95,0.00,,,0.00,TxWx,2013-02-05 04:38:00,
2013-02-04 22:39:00,67.0,66.0,29.85,SW,225,13.0,13.0,96,0.00,,,0.00,TxWx,2013-02-05 04:39:00,
2013-02-04 22:41:00,67.0,66.0,29.85,SW,225,9.0,9.0,96,0.00,,,0.00,TxWx,2013-02-05 04:41:00,
2013-02-04 22:43:00,67.0,66.0,29.85,SSW,202,7.0,7.0,95,0.00,,,0.00,TxWx,2013-02-05 04:43:00,
2013-02-04 22:44:00,67.0,66.0,29.85,SW,225,10.0,10.0,95,0.00,,,0.00,TxWx,2013-02-05 04:44:00,
2013-02-04 22:45:00,67.0,66.0,29.85,SSW,202,7.0,7.0,95,0.00,,,0.00,TxWx,2013-02-05 04:45:00,
2013-02-04 22:46:00,67.0,66.0,29.85,SSW,202,3.0,5.0,96,0.00,,,0.00,TxWx,2013-02-05 04:46:00,
2013-02-04 22:48:00,67.0,66.0,29.85,WSW,247,8.0,10.0,95,0.00,,,0.00,TxWx,2013-02-05 04:48:00,
2013-02-04 22:49:00,67.0,66.0,29.85,SSW,202,6.0,6.0,95,0.00,,,0.00,TxWx,2013-02-05 04:49:00,
2013-02-04 22:50:00,67.0,66.0,29.85,SW,225,9.0,10.0,95,0.00,,,0.00,TxWx,2013-02-05 04:50:00,
2013-02-04 22:55:00,67.0,66.0,29.85,SSW,202,10.0,11.0,95,0.00,,,0.00,TxWx,2013-02-05 04:55:00,
2013-02-04 22:56:00,67.0,66.0,29.85,SSW,202,10.0,13.0,95,0.00,,,0.00,TxWx,2013-02-05 04:56:00,
2013-02-04 23:15:00,67.0,66.0,29.85,SSW,202,6.0,8.0,95,0.00,,,0.00,TxWx,2013-02-05 05:15:00,
2013-02-04 23:21:00,67.0,66.0,29.85,SSW,202,6.0,8.0,95,0.00,,,0.00,TxWx,2013-02-05 05:21:00,
2013-02-04 23:26:00,67.0,66.0,29.85,SW,225,6.0,10.0,96,0.00,,,0.00,TxWx,2013-02-05 05:26:00,
2013-02-04 23:30:00,67.0,66.0,29.85,SSW,202,5.0,5.0,96,0.00,,,0.00,TxWx,2013-02-05 05:30:00,
2013-02-04 23:31:00,67.0,66.0,29.85,WSW,247,8.0,8.0,96,0.00,,,0.00,TxWx,2013-02-05 05:31:00,
2013-02-04 23:35:00,67.0,66.0,29.85,South,180,8.0,8.0,96,0.00,,,0.00,TxWx,2013-02-05 05:35:00,
2013-02-04 23:37:00,67.0,66.0,29.85,SW,225,11.0,13.0,96,0.00,,,0.00,TxWx,2013-02-05 05:37:00,
2013-02-04 23:41:00,67.0,66.0,29.85,SSW,202,10.0,11.0,96,0.00,,,0.00,TxWx,2013-02-05 05:41:00,
2013-02-04 23:42:00,67.0,66.0,29.85,SW,225,11.0,14.0,96,0.00,,,0.00,TxWx,2013-02-05 05:42:00,
2013-02-04 23:47:00,67.0,66.0,29.85,SW,225,7.0,7.0,96,0.00,,,0.00,TxWx,2013-02-05 05:47:00,
2013-02-04 23:48:00,67.0,66.0,29.85,SW,225,8.0,10.0,96,0.00,,,0.00,TxWx,2013-02-05 05:48:00,
2013-02-04 23:51:00,67.0,66.0,29.85,WSW,247,9.0,9.0,96,0.00,,,0.00,TxWx,2013-02-05 05:51:00,
2013-02-04 23:53:00,67.0,66.0,29.85,SW,225,8.0,8.0,96,0.00,,,0.00,TxWx,2013-02-05 05:53:00,
2013-02-04 23:54:00,67.0,66.0,29.85,WSW,247,10.0,11.0,97,0.00,,,0.00,TxWx,2013-02-05 05:54:00,
2013-02-04 23:56:00,67.0,66.0,29.85,SSW,202,11.0,12.0,97,0.00,,,0.00,TxWx,2013-02-05 05:56:00,
2013-02-04 23:57:00,67.0,66.0,29.85,SW,225,9.0,10.0,97,0.00,,,0.00,TxWx,2013-02-05 05:57:00,
2013-02-04 23:59:00,67.0,66.0,29.85,SSW,202,9.0,9.0,97,0.00,,,0.00,TxWx,2013-02-05 05:59:00,